Time,TemperatureF,DewpointF,PressureIn,WindDirection,WindDirectionDegrees,WindSpeedMPH,WindSpeedGustMPH,Humidity,HourlyPrecipIn,Conditions,Clouds,dailyrainin,SoftwareType,DateUTC
2013-03-01 00:03:00,37.4,16.4,30.17,SSW,198,2.7,3.6,42,0.00,,---,0.00,VWS V14.01,2013-03-01 07:03:00,
2013-03-01 00:04:00,37.4,16.4,30.17,SSW,209,0.0,3.6,42,0.00,,---,0.00,VWS V14.01,2013-03-01 07:04:00,
2013-03-01 00:05:00,37.4,17.0,30.17,SSW,208,2.7,3.6,43,0.00,,---,0.00,VWS V14.01,2013-03-01 07:05:00,
2013-03-01 00:08:00,37.2,16.8,30.17,SSW,209,0.0,3.6,43,0.00,,---,0.00,VWS V14.01,2013-03-01 07:08:00,
2013-03-01 00:09:00,37.2,16.8,30.17,SSW,209,2.7,3.6,43,0.00,,---,0.00,VWS V14.01,2013-03-01 07:09:00,
2013-03-01 00:10:00,37.2,16.8,30.17,SSW,209,2.7,3.6,43,0.00,,---,0.00,VWS V14.01,2013-03-01 07:10:00,
2013-03-01 00:11:00,37.2,17.3,30.17,SW,222,2.7,3.6,44,0.00,,---,0.00,VWS V14.01,2013-03-01 07:11:00,
2013-03-01 00:13:00,37.2,16.8,30.17,SW,215,0.0,3.6,43,0.00,,---,0.00,VWS V14.01,2013-03-01 07:13:00,
2013-03-01 00:15:00,37.2,17.3,30.17,SW,215,0.0,0.0,44,0.00,,---,0.00,VWS V14.01,2013-03-01 07:15:00,
2013-03-01 00:16:00,37.2,17.3,30.17,SW,215,0.0,0.0,44,0.00,,---,0.00,VWS V14.01,2013-03-01 07:16:00,
2013-03-01 00:18:00,37.0,17.2,30.17,SW,215,0.0,0.0,44,0.00,,---,0.00,VWS V14.01,2013-03-01 07:18:00,
2013-03-01 00:20:00,37.0,17.2,30.17,SW,215,0.0,0.0,44,0.00,,---,0.00,VWS V14.01,2013-03-01 07:20:00,
2013-03-01 00:22:00,36.9,17.0,30.17,SW,215,0.0,0.0,44,0.00,,---,0.00,VWS V14.01,2013-03-01 07:22:00,
2013-03-01 00:23:00,36.7,16.8,30.17,SW,215,0.0,0.0,44,0.00,,---,0.00,VWS V14.01,2013-03-01 07:23:00,
2013-03-01 00:25:00,36.7,16.8,30.17,SW,215,0.0,0.0,44,0.00,,---,0.00,VWS V14.01,2013-03-01 07:25:00,
2013-03-01 00:27:00,36.3,16.5,30.17,SW,215,0.0,0.0,44,0.00,,---,0.00,VWS V14.01,2013-03-01 07:27:00,
2013-03-01 00:29:00,36.3,16.5,30.17,SW,215,0.0,0.0,44,0.00,,---,0.00,VWS V14.01,2013-03-01 07:29:00,
2013-03-01 00:30:00,36.1,16.9,30.17,SW,215,0.0,0.0,45,0.00,,---,0.00,VWS V14.01,2013-03-01 07:30:00,
2013-03-01 00:32:00,36.0,17.2,30.17,SW,215,0.0,0.0,46,0.00,,---,0.00,VWS V14.01,2013-03-01 07:32:00,
2013-03-01 00:34:00,36.0,17.2,30.17,SW,215,2.2,2.7,46,0.00,,---,0.00,VWS V14.01,2013-03-01 07:34:00,
2013-03-01 00:35:00,35.8,17.0,30.17,SW,215,0.0,2.7,46,0.00,,---,0.00,VWS V14.01,2013-03-01 07:35:00,
2013-03-01 00:37:00,35.8,17.0,30.17,SW,215,2.7,2.7,46,0.00,,---,0.00,VWS V14.01,2013-03-01 07:37:00,
2013-03-01 00:39:00,35.8,17.5,30.17,SW,219,2.2,3.1,47,0.00,,---,0.00,VWS V14.01,2013-03-01 07:39:00,
2013-03-01 00:40:00,35.8,18.0,30.17,SW,219,0.0,3.1,48,0.00,,---,0.00,VWS V14.01,2013-03-01 07:40:00,
2013-03-01 00:42:00,35.6,18.3,30.17,SW,219,2.2,3.1,49,0.00,,---,0.00,VWS V14.01,2013-03-01 07:42:00,
2013-03-01 00:44:00,35.4,18.2,30.17,SW,219,0.0,3.1,49,0.00,,---,0.00,VWS V14.01,2013-03-01 07:44:00,
2013-03-01 00:45:00,35.4,18.2,30.17,SW,219,2.2,2.2,49,0.00,,---,0.00,VWS V14.01,2013-03-01 07:45:00,
2013-03-01 00:46:00,35.4,18.2,30.17,SW,219,2.7,2.7,49,0.00,,---,0.00,VWS V14.01,2013-03-01 07:46:00,
2013-03-01 00:47:00,35.2,18.0,30.17,SW,221,0.0,3.1,49,0.00,,---,0.00,VWS V14.01,2013-03-01 07:47:00,
2013-03-01 00:49:00,35.2,18.0,30.17,SW,221,2.2,3.1,49,0.00,,---,0.00,VWS V14.01,2013-03-01 07:49:00,
2013-03-01 00:50:00,35.2,18.0,30.17,SW,221,0.0,3.1,49,0.00,,---,0.00,VWS V14.01,2013-03-01 07:50:00,
2013-03-01 00:51:00,35.2,18.0,30.17,SW,221,0.0,3.1,49,0.00,,---,0.00,VWS V14.01,2013-03-01 07:51:00,
2013-03-01 00:52:00,35.2,18.0,30.17,SW,221,2.2,3.1,49,0.00,,---,0.00,VWS V14.01,2013-03-01 07:52:00,
2013-03-01 00:55:00,35.2,18.5,30.17,SW,229,2.7,3.1,50,0.00,,---,0.00,VWS V14.01,2013-03-01 07:55:00,
2013-03-01 00:56:00,35.2,18.5,30.17,SW,229,0.0,3.1,50,0.00,,---,0.00,VWS V14.01,2013-03-01 07:56:00,
2013-03-01 00:58:00,35.2,18.5,30.17,WNW,283,2.2,3.1,50,0.00,,---,0.00,VWS V14.01,2013-03-01 07:58:00,
2013-03-01 01:00:00,35.2,18.0,30.20,WNW,291,2.7,3.1,49,0.00,,---,0.00,VWS V14.01,2013-03-01 08:00:00,
2013-03-01 01:01:00,35.2,18.0,30.20,WNW,290,2.7,2.7,49,0.00,,---,0.00,VWS V14.01,2013-03-01 08:01:00,
2013-03-01 01:02:00,35.2,18.5,30.20,WNW,290,0.0,2.7,50,0.00,,---,0.00,VWS V14.01,2013-03-01 08:02:00,
2013-03-01 01:04:00,35.2,18.5,30.20,WNW,290,2.7,2.7,50,0.00,,---,0.00,VWS V14.01,2013-03-01 08:04:00,
2013-03-01 01:05:00,35.2,18.5,30.20,WNW,290,2.2,3.1,50,0.00,,---,0.00,VWS V14.01,2013-03-01 08:05:00,
2013-03-01 01:06:00,35.2,18.5,30.20,WNW,290,2.7,3.1,50,0.00,,---,0.00,VWS V14.01,2013-03-01 08:06:00,
2013-03-01 01:07:00,35.1,18.3,30.20,WNW,290,2.2,3.1,50,0.00,,---,0.00,VWS V14.01,2013-03-01 08:07:00,
2013-03-01 01:09:00,35.1,18.3,30.20,WNW,295,2.7,3.1,50,0.00,,---,0.00,VWS V14.01,2013-03-01 08:09:00,
2013-03-01 01:10:00,35.1,18.3,30.20,WNW,294,2.2,3.1,50,0.00,,---,0.00,VWS V14.01,2013-03-01 08:10:00,
2013-03-01 01:11:00,35.1,18.3,30.20,WNW,294,2.7,3.1,50,0.00,,---,0.00,VWS V14.01,2013-03-01 08:11:00,
2013-03-01 01:12:00,34.9,18.1,30.20,WNW,294,2.2,3.1,50,0.00,,---,0.00,VWS V14.01,2013-03-01 08:12:00,
2013-03-01 01:14:00,34.9,18.1,30.20,WNW,294,2.7,3.1,50,0.00,,---,0.00,VWS V14.01,2013-03-01 08:14:00,
2013-03-01 01:15:00,34.9,18.1,30.20,WNW,294,2.7,2.7,50,0.00,,---,0.00,VWS V14.01,2013-03-01 08:15:00,
2013-03-01 01:17:00,34.9,18.1,30.20,WNW,294,2.2,3.1,50,0.00,,---,0.00,VWS V14.01,2013-03-01 08:17:00,
2013-03-01 01:19:00,34.7,18.4,30.20,WNW,285,3.6,3.6,51,0.00,,---,0.00,VWS V14.01,2013-03-01 08:19:00,
2013-03-01 01:20:00,34.7,18.4,30.20,WSW,239,2.7,4.0,51,0.00,,---,0.00,VWS V14.01,2013-03-01 08:20:00,
2013-03-01 01:22:00,34.7,18.4,30.20,South,189,3.6,4.0,51,0.00,,---,0.00,VWS V14.01,2013-03-01 08:22:00,
2013-03-01 01:24:00,34.7,18.4,30.20,SSW,210,2.7,4.0,51,0.00,,---,0.00,VWS V14.01,2013-03-01 08:24:00,
2013-03-01 01:25:00,34.9,18.6,30.20,SW,236,0.0,4.0,51,0.00,,---,0.00,VWS V14.01,2013-03-01 08:25:00,
2013-03-01 01:27:00,34.9,18.6,30.20,SW,236,0.0,4.0,51,0.00,,---,0.00,VWS V14.01,2013-03-01 08:27:00,
2013-03-01 01:29:00,34.9,18.1,30.20,SW,235,2.7,4.0,50,0.00,,---,0.00,VWS V14.01,2013-03-01 08:29:00,
2013-03-01 01:30:00,34.9,18.6,30.20,SSW,201,2.2,3.1,51,0.00,,---,0.00,VWS V14.01,2013-03-01 08:30:00,
2013-03-01 01:32:00,34.9,18.1,30.20,SSW,201,0.0,3.1,50,0.00,,---,0.00,VWS V14.01,2013-03-01 08:32:00,
2013-03-01 01:33:00,35.1,18.3,30.20,SSW,201,0.0,3.1,50,0.00,,---,0.00,VWS V14.01,2013-03-01 08:33:00,
2013-03-01 01:34:00,35.1,18.3,30.20,SSW,194,3.1,3.6,50,0.00,,---,0.00,VWS V14.01,2013-03-01 08:34:00,
2013-03-01 01:35:00,35.2,18.5,30.20,South,189,2.2,3.6,50,0.00,,---,0.00,VWS V14.01,2013-03-01 08:35:00,
2013-03-01 01:37:00,35.2,18.5,30.20,South,188,2.2,3.6,50,0.00,,---,0.00,VWS V14.01,2013-03-01 08:37:00,
2013-03-01 01:38:00,35.2,18.5,30.20,South,188,0.0,3.6,50,0.00,,---,0.00,VWS V14.01,2013-03-01 08:38:00,
2013-03-01 01:40:00,35.4,18.6,30.20,ESE,117,3.6,5.4,50,0.00,,---,0.00,VWS V14.01,2013-03-01 08:40:00,
2013-03-01 01:42:00,35.6,18.3,30.20,SE,131,0.0,5.4,49,0.00,,---,0.00,VWS V14.01,2013-03-01 08:42:00,
2013-03-01 01:43:00,35.6,18.3,30.20,East,82,3.1,5.4,49,0.00,,---,0.00,VWS V14.01,2013-03-01 08:43:00,
2013-03-01 01:45:00,35.8,18.5,30.20,East,81,2.2,5.4,49,0.00,,---,0.00,VWS V14.01,2013-03-01 08:45:00,
2013-03-01 01:46:00,35.8,18.5,30.20,East,81,0.0,2.2,49,0.00,,---,0.00,VWS V14.01,2013-03-01 08:46:00,
2013-03-01 01:47:00,35.8,18.0,30.20,East,81,0.0,2.2,48,0.00,,---,0.00,VWS V14.01,2013-03-01 08:47:00,
2013-03-01 01:48:00,36.0,18.2,30.20,SE,140,2.7,2.7,48,0.00,,---,0.00,VWS V14.01,2013-03-01 08:48:00,
2013-03-01 01:50:00,36.0,18.2,30.20,SE,141,0.0,3.1,48,0.00,,---,0.00,VWS V14.01,2013-03-01 08:50:00,
2013-03-01 01:51:00,36.0,18.2,30.20,SE,141,0.0,3.1,48,0.00,,---,0.00,VWS V14.01,2013-03-01 08:51:00,
2013-03-01 01:52:00,36.1,18.4,30.20,ESE,105,4.0,4.0,48,0.00,,---,0.00,VWS V14.01,2013-03-01 08:52:00,
2013-03-01 01:54:00,36.1,18.4,30.20,WNW,297,3.6,4.0,48,0.00,,---,0.00,VWS V14.01,2013-03-01 08:54:00,
2013-03-01 01:55:00,36.3,19.0,30.20,SW,228,0.0,4.0,49,0.00,,---,0.00,VWS V14.01,2013-03-01 08:55:00,
2013-03-01 01:56:00,36.3,19.0,30.20,NW,316,5.4,5.4,49,0.00,,---,0.00,VWS V14.01,2013-03-01 08:56:00,
2013-03-01 01:57:00,36.3,19.0,30.20,SSW,195,5.4,5.4,49,0.00,,---,0.00,VWS V14.01,2013-03-01 08:57:00,
2013-03-01 01:59:00,36.7,18.9,30.17,South,189,0.0,5.4,48,0.00,,---,0.00,VWS V14.01,2013-03-01 08:59:00,
2013-03-01 02:00:00,36.7,18.9,30.17,WSW,241,3.6,4.0,48,0.00,,---,0.00,VWS V14.01,2013-03-01 09:00:00,
2013-03-01 02:01:00,36.9,19.0,30.17,WSW,240,2.2,4.0,48,0.00,,---,0.00,VWS V14.01,2013-03-01 09:01:00,
2013-03-01 02:02:00,36.9,19.0,30.17,SSW,202,2.7,4.0,48,0.00,,---,0.00,VWS V14.01,2013-03-01 09:02:00,
2013-03-01 02:04:00,37.2,19.4,30.17,SSW,205,5.4,5.4,48,0.00,,---,0.00,VWS V14.01,2013-03-01 09:04:00,
2013-03-01 02:05:00,37.4,19.0,30.17,SSW,210,4.0,5.4,47,0.00,,---,0.00,VWS V14.01,2013-03-01 09:05:00,
2013-03-01 02:06:00,37.6,19.2,30.17,SSW,206,6.3,6.3,47,0.00,,---,0.00,VWS V14.01,2013-03-01 09:06:00,
2013-03-01 02:07:00,37.9,19.5,30.17,WNW,302,4.0,6.7,47,0.00,,---,0.00,VWS V14.01,2013-03-01 09:07:00,
2013-03-01 02:10:00,38.1,19.2,30.17,West,277,0.0,6.7,46,0.00,,---,0.00,VWS V14.01,2013-03-01 09:10:00,
2013-03-01 02:11:00,38.3,19.4,30.17,West,277,0.0,6.7,46,0.00,,---,0.00,VWS V14.01,2013-03-01 09:11:00,
2013-03-01 02:13:00,38.5,19.5,30.17,WNW,285,2.2,6.7,46,0.00,,---,0.00,VWS V14.01,2013-03-01 09:13:00,
2013-03-01 02:15:00,38.5,19.0,30.20,WSW,250,0.0,6.7,45,0.00,,---,0.00,VWS V14.01,2013-03-01 09:15:00,
2013-03-01 02:16:00,38.7,19.2,30.20,South,172,2.7,2.7,45,0.00,,---,0.00,VWS V14.01,2013-03-01 09:16:00,
2013-03-01 02:18:00,38.7,19.2,30.20,SSW,204,2.2,3.1,45,0.00,,---,0.00,VWS V14.01,2013-03-01 09:18:00,
2013-03-01 02:20:00,38.7,19.2,30.20,SSW,210,3.1,6.3,45,0.00,,---,0.00,VWS V14.01,2013-03-01 09:20:00,
2013-03-01 02:21:00,38.7,19.2,30.20,SSW,213,2.7,6.3,45,0.00,,---,0.00,VWS V14.01,2013-03-01 09:21:00,
2013-03-01 02:23:00,38.8,18.8,30.20,South,180,2.7,6.3,44,0.00,,---,0.00,VWS V14.01,2013-03-01 09:23:00,
2013-03-01 02:25:00,39.0,19.0,30.20,SSW,206,4.0,6.7,44,0.00,,---,0.00,VWS V14.01,2013-03-01 09:25:00,
2013-03-01 02:26:00,39.2,19.1,30.20,SW,218,3.6,6.7,44,0.00,,---,0.00,VWS V14.01,2013-03-01 09:26:00,
2013-03-01 02:28:00,39.4,18.8,30.20,South,177,2.7,6.7,43,0.00,,---,0.00,VWS V14.01,2013-03-01 09:28:00,
2013-03-01 02:30:00,39.4,18.8,30.20,South,177,0.0,2.2,43,0.00,,---,0.00,VWS V14.01,2013-03-01 09:30:00,
2013-03-01 02:31:00,39.4,18.8,30.20,South,177,0.0,2.2,43,0.00,,---,0.00,VWS V14.01,2013-03-01 09:31:00,
2013-03-01 02:33:00,39.6,18.9,30.20,SSW,192,2.7,4.0,43,0.00,,---,0.00,VWS V14.01,2013-03-01 09:33:00,
2013-03-01 02:35:00,39.6,18.9,30.20,SSW,209,2.7,4.0,43,0.00,,---,0.00,VWS V14.01,2013-03-01 09:35:00,
2013-03-01 02:36:00,39.6,18.9,30.20,SSW,192,2.2,4.0,43,0.00,,---,0.00,VWS V14.01,2013-03-01 09:36:00,
2013-03-01 02:37:00,39.6,18.9,30.20,SSW,192,3.1,4.0,43,0.00,,---,0.00,VWS V14.01,2013-03-01 09:37:00,
2013-03-01 02:39:00,39.7,19.1,30.20,SW,222,2.7,4.0,43,0.00,,---,0.00,VWS V14.01,2013-03-01 09:39:00,
2013-03-01 02:41:00,39.7,19.1,30.20,West,260,4.0,4.9,43,0.00,,---,0.00,VWS V14.01,2013-03-01 09:41:00,
2013-03-01 02:42:00,39.7,19.1,30.20,West,277,4.0,5.4,43,0.00,,---,0.00,VWS V14.01,2013-03-01 09:42:00,
2013-03-01 02:44:00,39.7,18.5,30.20,SSW,197,5.8,5.8,42,0.00,,---,0.00,VWS V14.01,2013-03-01 09:44:00,
2013-03-01 02:46:00,39.7,19.1,30.20,West,281,4.0,5.8,43,0.00,,---,0.00,VWS V14.01,2013-03-01 09:46:00,
2013-03-01 02:47:00,39.7,19.1,30.20,WNW,286,7.6,7.6,43,0.00,,---,0.00,VWS V14.01,2013-03-01 09:47:00,
2013-03-01 02:49:00,39.7,18.5,30.20,WSW,253,4.9,7.6,42,0.00,,---,0.00,VWS V14.01,2013-03-01 09:49:00,
2013-03-01 02:51:00,39.9,18.7,30.20,SSE,165,3.1,7.6,42,0.00,,---,0.00,VWS V14.01,2013-03-01 09:51:00,
2013-03-01 02:52:00,39.9,18.7,30.20,WSW,246,3.1,7.6,42,0.00,,---,0.00,VWS V14.01,2013-03-01 09:52:00,
2013-03-01 02:54:00,39.9,18.7,30.20,South,179,6.3,8.1,42,0.00,,---,0.00,VWS V14.01,2013-03-01 09:54:00,
2013-03-01 02:56:00,40.1,18.9,30.20,West,270,3.1,8.1,42,0.00,,---,0.00,VWS V14.01,2013-03-01 09:56:00,
2013-03-01 02:58:00,40.1,18.9,30.20,SW,236,2.7,8.1,42,0.00,,---,0.00,VWS V14.01,2013-03-01 09:58:00,
2013-03-01 02:59:00,39.9,18.7,30.20,SSW,212,3.6,8.1,42,0.00,,---,0.00,VWS V14.01,2013-03-01 09:59:00,
2013-03-01 03:01:00,39.9,18.7,30.20,SW,226,4.9,5.8,42,0.00,,---,0.00,VWS V14.01,2013-03-01 10:01:00,
2013-03-01 03:03:00,39.9,19.2,30.20,SSW,207,2.7,5.8,43,0.00,,---,0.00,VWS V14.01,2013-03-01 10:03:00,
2013-03-01 03:04:00,39.9,18.7,30.20,SSW,198,2.2,5.8,42,0.00,,---,0.00,VWS V14.01,2013-03-01 10:04:00,
2013-03-01 03:06:00,39.9,18.7,30.20,SSW,202,5.4,5.8,42,0.00,,---,0.00,VWS V14.01,2013-03-01 10:06:00,
2013-03-01 03:07:00,39.9,18.7,30.20,SSW,200,3.1,5.8,42,0.00,,---,0.00,VWS V14.01,2013-03-01 10:07:00,
2013-03-01 03:08:00,39.9,18.7,30.20,SW,214,3.6,5.8,42,0.00,,---,0.00,VWS V14.01,2013-03-01 10:08:00,
2013-03-01 03:10:00,39.9,18.7,30.20,SSW,196,2.7,5.8,42,0.00,,---,0.00,VWS V14.01,2013-03-01 10:10:00,
2013-03-01 03:11:00,39.9,18.7,30.20,SSW,199,3.6,5.8,42,0.00,,---,0.00,VWS V14.01,2013-03-01 10:11:00,
2013-03-01 03:12:00,39.9,18.7,30.20,SW,222,3.1,5.8,42,0.00,,---,0.00,VWS V14.01,2013-03-01 10:12:00,
2013-03-01 03:13:00,39.9,18.7,30.20,WSW,250,2.7,5.8,42,0.00,,---,0.00,VWS V14.01,2013-03-01 10:13:00,
2013-03-01 03:15:00,39.7,19.1,30.20,WSW,244,0.0,2.2,43,0.00,,---,0.00,VWS V14.01,2013-03-01 10:15:00,
2013-03-01 03:16:00,39.7,18.5,30.20,WSW,250,2.7,2.7,42,0.00,,---,0.00,VWS V14.01,2013-03-01 10:16:00,
2013-03-01 03:17:00,39.7,18.5,30.20,West,264,3.1,3.1,42,0.00,,---,0.00,VWS V14.01,2013-03-01 10:17:00,
2013-03-01 03:18:00,39.7,18.5,30.20,West,280,3.1,3.1,42,0.00,,---,0.00,VWS V14.01,2013-03-01 10:18:00,
2013-03-01 03:20:00,39.7,19.1,30.20,SW,220,3.1,4.0,43,0.00,,---,0.00,VWS V14.01,2013-03-01 10:20:00,
2013-03-01 03:22:00,39.6,18.9,30.20,WNW,286,2.7,4.0,43,0.00,,---,0.00,VWS V14.01,2013-03-01 10:22:00,
2013-03-01 03:23:00,39.6,18.9,30.20,WSW,253,3.1,4.5,43,0.00,,---,0.00,VWS V14.01,2013-03-01 10:23:00,
2013-03-01 03:26:00,39.7,19.1,30.20,WSW,240,3.6,7.2,43,0.00,,---,0.00,VWS V14.01,2013-03-01 10:26:00,
2013-03-01 03:27:00,39.7,19.1,30.20,West,272,4.0,7.2,43,0.00,,---,0.00,VWS V14.01,2013-03-01 10:27:00,
2013-03-01 03:28:00,39.7,19.1,30.20,West,281,2.7,7.2,43,0.00,,---,0.00,VWS V14.01,2013-03-01 10:28:00,
2013-03-01 03:31:00,39.7,19.1,30.20,WNW,292,3.1,4.9,43,0.00,,---,0.00,VWS V14.01,2013-03-01 10:31:00,
2013-03-01 03:32:00,39.7,19.1,30.20,WNW,295,4.0,4.9,43,0.00,,---,0.00,VWS V14.01,2013-03-01 10:32:00,
2013-03-01 03:33:00,39.6,18.9,30.20,West,267,3.1,4.9,43,0.00,,---,0.00,VWS V14.01,2013-03-01 10:33:00,
2013-03-01 03:36:00,39.6,18.9,30.20,West,281,5.4,5.4,43,0.00,,---,0.00,VWS V14.01,2013-03-01 10:36:00,
2013-03-01 03:37:00,39.6,18.9,30.20,West,281,4.0,5.4,43,0.00,,---,0.00,VWS V14.01,2013-03-01 10:37:00,
2013-03-01 03:38:00,39.6,18.9,30.20,West,271,2.7,5.4,43,0.00,,---,0.00,VWS V14.01,2013-03-01 10:38:00,
2013-03-01 03:39:00,39.6,18.9,30.20,WSW,255,2.7,5.4,43,0.00,,---,0.00,VWS V14.01,2013-03-01 10:39:00,
2013-03-01 03:41:00,39.4,18.8,30.20,West,275,3.6,5.4,43,0.00,,---,0.00,VWS V14.01,2013-03-01 10:41:00,
2013-03-01 03:42:00,39.4,18.8,30.20,WNW,285,2.7,5.4,43,0.00,,---,0.00,VWS V14.01,2013-03-01 10:42:00,
2013-03-01 03:43:00,39.6,18.9,30.20,West,269,3.1,5.4,43,0.00,,---,0.00,VWS V14.01,2013-03-01 10:43:00,
2013-03-01 03:44:00,39.6,18.9,30.20,West,270,2.7,5.4,43,0.00,,---,0.00,VWS V14.01,2013-03-01 10:44:00,
2013-03-01 03:46:00,39.6,18.9,30.20,WSW,249,3.6,4.0,43,0.00,,---,0.00,VWS V14.01,2013-03-01 10:46:00,
2013-03-01 03:47:00,39.6,18.9,30.20,West,260,3.1,4.0,43,0.00,,---,0.00,VWS V14.01,2013-03-01 10:47:00,
2013-03-01 03:48:00,39.6,18.9,30.20,West,266,2.7,4.0,43,0.00,,---,0.00,VWS V14.01,2013-03-01 10:48:00,
2013-03-01 03:49:00,39.6,18.9,30.20,WNW,285,5.8,5.8,43,0.00,,---,0.00,VWS V14.01,2013-03-01 10:49:00,
2013-03-01 03:51:00,39.7,19.1,30.20,SW,236,3.1,5.8,43,0.00,,---,0.00,VWS V14.01,2013-03-01 10:51:00,
2013-03-01 03:52:00,39.7,19.1,30.20,WSW,243,4.9,5.8,43,0.00,,---,0.00,VWS V14.01,2013-03-01 10:52:00,
2013-03-01 03:53:00,39.7,19.1,30.20,SW,235,3.1,5.8,43,0.00,,---,0.00,VWS V14.01,2013-03-01 10:53:00,
2013-03-01 03:54:00,39.7,19.1,30.20,West,261,2.2,5.8,43,0.00,,---,0.00,VWS V14.01,2013-03-01 10:54:00,
2013-03-01 03:56:00,39.7,19.1,30.20,SSW,202,4.0,5.8,43,0.00,,---,0.00,VWS V14.01,2013-03-01 10:56:00,
2013-03-01 03:57:00,39.7,18.5,30.20,West,264,3.6,5.8,42,0.00,,---,0.00,VWS V14.01,2013-03-01 10:57:00,
2013-03-01 03:58:00,39.7,19.1,30.20,West,272,3.6,5.8,43,0.00,,---,0.00,VWS V14.01,2013-03-01 10:58:00,
2013-03-01 03:59:00,39.9,18.7,30.20,West,274,2.7,5.8,42,0.00,,---,0.00,VWS V14.01,2013-03-01 10:59:00,
2013-03-01 04:02:00,39.9,18.7,30.20,SW,226,0.0,5.4,42,0.00,,---,0.00,VWS V14.01,2013-03-01 11:02:00,
2013-03-01 04:03:00,40.1,18.9,30.20,SW,226,0.0,5.4,42,0.00,,---,0.00,VWS V14.01,2013-03-01 11:03:00,
2013-03-01 04:04:00,40.1,18.9,30.20,SSW,199,2.7,5.4,42,0.00,,---,0.00,VWS V14.01,2013-03-01 11:04:00,
2013-03-01 04:07:00,40.3,19.0,30.20,SSW,199,0.0,5.4,42,0.00,,---,0.00,VWS V14.01,2013-03-01 11:07:00,
2013-03-01 04:08:00,40.1,18.9,30.20,SSW,199,2.2,5.4,42,0.00,,---,0.00,VWS V14.01,2013-03-01 11:08:00,
2013-03-01 04:10:00,40.1,18.9,30.20,SSW,199,2.7,5.4,42,0.00,,---,0.00,VWS V14.01,2013-03-01 11:10:00,
2013-03-01 04:12:00,40.3,19.0,30.20,SSW,194,2.7,5.4,42,0.00,,---,0.00,VWS V14.01,2013-03-01 11:12:00,
2013-03-01 04:13:00,40.3,19.0,30.20,SSW,194,2.2,5.4,42,0.00,,---,0.00,VWS V14.01,2013-03-01 11:13:00,
2013-03-01 04:15:00,40.3,19.0,30.20,SSW,194,0.0,2.2,42,0.00,,---,0.00,VWS V14.01,2013-03-01 11:15:00,
2013-03-01 04:17:00,40.3,19.0,30.20,SSW,194,0.0,2.2,42,0.00,,---,0.00,VWS V14.01,2013-03-01 11:17:00,
2013-03-01 04:18:00,40.3,19.0,30.20,SSW,194,0.0,2.2,42,0.00,,---,0.00,VWS V14.01,2013-03-01 11:18:00,
2013-03-01 04:19:00,40.3,19.0,30.20,SSW,194,0.0,2.2,42,0.00,,---,0.00,VWS V14.01,2013-03-01 11:19:00,
2013-03-01 04:20:00,40.3,19.0,30.20,SSW,194,0.0,2.2,42,0.00,,---,0.00,VWS V14.01,2013-03-01 11:20:00,
2013-03-01 04:23:00,40.3,19.0,30.20,South,186,2.2,3.1,42,0.00,,---,0.00,VWS V14.01,2013-03-01 11:23:00,
2013-03-01 04:24:00,40.3,18.5,30.20,South,186,3.6,3.6,41,0.00,,---,0.00,VWS V14.01,2013-03-01 11:24:00,
2013-03-01 04:25:00,40.3,18.5,30.20,South,189,4.0,4.0,41,0.00,,---,0.00,VWS V14.01,2013-03-01 11:25:00,
2013-03-01 04:28:00,40.5,18.6,30.20,SSW,202,4.0,4.0,41,0.00,,---,0.00,VWS V14.01,2013-03-01 11:28:00,
2013-03-01 04:29:00,40.5,18.6,30.20,SSW,202,2.7,4.0,41,0.00,,---,0.00,VWS V14.01,2013-03-01 11:29:00,
2013-03-01 04:30:00,40.5,18.6,30.20,SSW,203,2.7,2.7,41,0.00,,---,0.00,VWS V14.01,2013-03-01 11:30:00,
2013-03-01 04:33:00,40.5,18.6,30.20,SSW,203,3.1,3.1,41,0.00,,---,0.00,VWS V14.01,2013-03-01 11:33:00,
2013-03-01 04:34:00,40.5,18.6,30.20,SSW,203,3.1,3.6,41,0.00,,---,0.00,VWS V14.01,2013-03-01 11:34:00,
2013-03-01 04:35:00,40.5,18.6,30.20,SSW,203,2.7,3.6,41,0.00,,---,0.00,VWS V14.01,2013-03-01 11:35:00,
2013-03-01 04:39:00,40.5,18.6,30.20,SSW,201,4.0,4.9,41,0.00,,---,0.00,VWS V14.01,2013-03-01 11:39:00,
2013-03-01 04:40:00,40.5,18.6,30.20,SSW,197,4.9,4.9,41,0.00,,---,0.00,VWS V14.01,2013-03-01 11:40:00,
2013-03-01 04:44:00,41.0,19.1,30.17,SW,221,0.0,6.3,41,0.00,,---,0.00,VWS V14.01,2013-03-01 11:44:00,
2013-03-01 04:45:00,41.0,19.1,30.17,SW,217,2.2,2.2,41,0.00,,---,0.00,VWS V14.01,2013-03-01 11:45:00,
2013-03-01 04:46:00,41.0,19.1,30.17,SW,217,0.0,2.2,41,0.00,,---,0.00,VWS V14.01,2013-03-01 11:46:00,
2013-03-01 04:49:00,41.0,18.5,30.17,SW,217,2.2,2.2,40,0.00,,---,0.00,VWS V14.01,2013-03-01 11:49:00,
2013-03-01 04:50:00,41.0,18.5,30.17,SW,217,2.7,3.1,40,0.00,,---,0.00,VWS V14.01,2013-03-01 11:50:00,
2013-03-01 04:51:00,41.0,18.5,30.17,SW,217,0.0,3.1,40,0.00,,---,0.00,VWS V14.01,2013-03-01 11:51:00,
2013-03-01 04:54:00,41.0,18.5,30.17,SW,217,0.0,3.1,40,0.00,,---,0.00,VWS V14.01,2013-03-01 11:54:00,
2013-03-01 04:55:00,41.0,18.5,30.17,SW,217,0.0,3.1,40,0.00,,---,0.00,VWS V14.01,2013-03-01 11:55:00,
2013-03-01 04:58:00,41.0,18.5,30.17,SW,217,0.0,3.1,40,0.00,,---,0.00,VWS V14.01,2013-03-01 11:58:00,
2013-03-01 04:59:00,41.0,18.5,30.20,SW,217,0.0,3.1,40,0.00,,---,0.00,VWS V14.01,2013-03-01 11:59:00,
2013-03-01 05:00:00,41.0,18.5,30.20,SW,217,2.2,2.2,40,0.00,,---,0.00,VWS V14.01,2013-03-01 12:00:00,
2013-03-01 05:03:00,40.8,19.0,30.20,SW,217,2.2,2.2,41,0.00,,---,0.00,VWS V14.01,2013-03-01 12:03:00,
2013-03-01 05:04:00,40.8,19.0,30.20,SW,217,0.0,2.2,41,0.00,,---,0.00,VWS V14.01,2013-03-01 12:04:00,
2013-03-01 05:05:00,40.6,18.8,30.20,SW,217,0.0,3.6,41,0.00,,---,0.00,VWS V14.01,2013-03-01 12:05:00,
2013-03-01 05:08:00,40.6,18.8,30.20,SW,217,2.2,3.6,41,0.00,,---,0.00,VWS V14.01,2013-03-01 12:08:00,
2013-03-01 05:09:00,40.6,19.4,30.20,SW,217,0.0,3.6,42,0.00,,---,0.00,VWS V14.01,2013-03-01 12:09:00,
2013-03-01 05:10:00,40.6,19.4,30.20,SW,217,0.0,3.6,42,0.00,,---,0.00,VWS V14.01,2013-03-01 12:10:00,
2013-03-01 05:13:00,40.5,19.2,30.20,SW,217,0.0,3.6,42,0.00,,---,0.00,VWS V14.01,2013-03-01 12:13:00,
2013-03-01 05:15:00,40.5,18.6,30.20,SW,217,0.0,3.6,41,0.00,,---,0.00,VWS V14.01,2013-03-01 12:15:00,
2013-03-01 05:16:00,40.5,18.6,30.20,SW,217,0.0,0.0,41,0.00,,---,0.00,VWS V14.01,2013-03-01 12:16:00,
2013-03-01 05:18:00,40.5,18.6,30.20,SW,217,0.0,2.2,41,0.00,,---,0.00,VWS V14.01,2013-03-01 12:18:00,
2013-03-01 05:20:00,40.5,18.6,30.20,SW,217,2.7,2.7,41,0.00,,---,0.00,VWS V14.01,2013-03-01 12:20:00,
2013-03-01 05:21:00,40.5,18.6,30.20,SW,217,0.0,2.7,41,0.00,,---,0.00,VWS V14.01,2013-03-01 12:21:00,
2013-03-01 05:23:00,40.5,18.6,30.20,SW,217,0.0,2.7,41,0.00,,---,0.00,VWS V14.01,2013-03-01 12:23:00,
2013-03-01 05:25:00,40.5,18.6,30.20,SW,217,0.0,2.7,41,0.00,,---,0.00,VWS V14.01,2013-03-01 12:25:00,
2013-03-01 05:26:00,40.5,18.6,30.20,SW,217,0.0,2.7,41,0.00,,---,0.00,VWS V14.01,2013-03-01 12:26:00,
2013-03-01 05:28:00,40.5,18.6,30.20,SW,217,0.0,2.7,41,0.00,,---,0.00,VWS V14.01,2013-03-01 12:28:00,
2013-03-01 05:30:00,40.5,18.6,30.20,SW,217,0.0,0.0,41,0.00,,---,0.00,VWS V14.01,2013-03-01 12:30:00,
2013-03-01 05:31:00,40.5,18.6,30.20,SW,217,0.0,0.0,41,0.00,,---,0.00,VWS V14.01,2013-03-01 12:31:00,
2013-03-01 05:33:00,40.3,18.5,30.20,SW,217,0.0,0.0,41,0.00,,---,0.00,VWS V14.01,2013-03-01 12:33:00,
2013-03-01 05:35:00,40.1,18.9,30.20,SW,217,0.0,2.7,42,0.00,,---,0.00,VWS V14.01,2013-03-01 12:35:00,
2013-03-01 05:36:00,39.9,18.7,30.20,SW,217,0.0,2.7,42,0.00,,---,0.00,VWS V14.01,2013-03-01 12:36:00,
2013-03-01 05:38:00,39.7,18.5,30.20,SW,217,0.0,2.7,42,0.00,,---,0.00,VWS V14.01,2013-03-01 12:38:00,
2013-03-01 05:40:00,39.6,18.4,30.20,SW,217,0.0,2.7,42,0.00,,---,0.00,VWS V14.01,2013-03-01 12:40:00,
2013-03-01 05:41:00,39.6,18.4,30.20,SW,217,0.0,2.7,42,0.00,,---,0.00,VWS V14.01,2013-03-01 12:41:00,
2013-03-01 05:42:00,39.6,18.4,30.20,SW,217,0.0,2.7,42,0.00,,---,0.00,VWS V14.01,2013-03-01 12:42:00,
2013-03-01 05:43:00,39.4,18.2,30.20,SW,217,0.0,2.7,42,0.00,,---,0.00,VWS V14.01,2013-03-01 12:43:00,
2013-03-01 05:45:00,39.4,18.2,30.20,SW,217,0.0,0.0,42,0.00,,---,0.00,VWS V14.01,2013-03-01 12:45:00,
2013-03-01 05:46:00,39.4,18.2,30.20,SW,217,0.0,0.0,42,0.00,,---,0.00,VWS V14.01,2013-03-01 12:46:00,
2013-03-01 05:47:00,39.4,18.2,30.20,SW,217,0.0,0.0,42,0.00,,---,0.00,VWS V14.01,2013-03-01 12:47:00,
2013-03-01 05:48:00,39.4,18.2,30.20,SW,217,0.0,0.0,42,0.00,,---,0.00,VWS V14.01,2013-03-01 12:48:00,
2013-03-01 05:50:00,39.2,18.0,30.20,SW,217,0.0,0.0,42,0.00,,---,0.00,VWS V14.01,2013-03-01 12:50:00,
2013-03-01 05:51:00,39.2,18.0,30.20,SW,217,0.0,0.0,42,0.00,,---,0.00,VWS V14.01,2013-03-01 12:51:00,
2013-03-01 05:52:00,39.2,18.0,30.20,SW,217,0.0,0.0,42,0.00,,---,0.00,VWS V14.01,2013-03-01 12:52:00,
2013-03-01 05:53:00,39.2,18.0,30.20,SW,217,0.0,0.0,42,0.00,,---,0.00,VWS V14.01,2013-03-01 12:53:00,
2013-03-01 05:56:00,39.4,18.2,30.20,SW,217,0.0,0.0,42,0.00,,---,0.00,VWS V14.01,2013-03-01 12:56:00,
2013-03-01 05:58:00,39.2,18.6,30.20,SW,217,0.0,2.7,43,0.00,,---,0.00,VWS V14.01,2013-03-01 12:58:00,
2013-03-01 05:59:00,39.2,18.6,30.20,SW,217,0.0,2.7,43,0.00,,---,0.00,VWS V14.01,2013-03-01 12:59:00,
2013-03-01 06:01:00,39.2,18.6,30.20,SW,217,0.0,2.7,43,0.00,,---,0.00,VWS V14.01,2013-03-01 13:01:00,
2013-03-01 06:02:00,39.0,18.4,30.20,SW,217,0.0,2.7,43,0.00,,---,0.00,VWS V14.01,2013-03-01 13:02:00,
2013-03-01 06:03:00,39.0,18.4,30.20,SW,217,2.2,2.7,43,0.00,,---,0.00,VWS V14.01,2013-03-01 13:03:00,
2013-03-01 06:04:00,38.8,18.3,30.20,SW,217,0.0,2.7,43,0.00,,---,0.00,VWS V14.01,2013-03-01 13:04:00,
2013-03-01 06:06:00,38.8,18.8,30.20,South,174,2.7,2.7,44,0.00,,---,0.00,VWS V14.01,2013-03-01 13:06:00,
2013-03-01 06:07:00,38.8,18.8,30.20,South,172,3.1,3.1,44,0.00,,---,0.00,VWS V14.01,2013-03-01 13:07:00,
2013-03-01 06:08:00,38.7,18.6,30.20,South,185,3.1,3.1,44,0.00,,---,0.00,VWS V14.01,2013-03-01 13:08:00,
2013-03-01 06:09:00,38.7,18.6,30.20,South,185,3.1,3.1,44,0.00,,---,0.00,VWS V14.01,2013-03-01 13:09:00,
2013-03-01 06:11:00,38.7,18.6,30.20,South,186,2.2,3.1,44,0.00,,---,0.00,VWS V14.01,2013-03-01 13:11:00,
2013-03-01 06:12:00,38.7,19.2,30.20,South,186,2.2,3.6,45,0.00,,---,0.00,VWS V14.01,2013-03-01 13:12:00,
2013-03-01 06:14:00,38.7,19.2,30.20,SE,127,3.1,3.6,45,0.00,,---,0.00,VWS V14.01,2013-03-01 13:14:00,
2013-03-01 06:16:00,38.8,19.3,30.20,WNW,302,4.9,6.3,45,0.00,,---,0.00,VWS V14.01,2013-03-01 13:16:00,
2013-03-01 06:18:00,38.8,19.3,30.20,NW,314,2.2,6.3,45,0.00,,---,0.00,VWS V14.01,2013-03-01 13:18:00,
2013-03-01 06:19:00,39.0,19.5,30.20,SSW,200,4.0,6.3,45,0.00,,---,0.00,VWS V14.01,2013-03-01 13:19:00,
2013-03-01 06:21:00,39.0,19.5,30.20,SSW,200,0.0,6.3,45,0.00,,---,0.00,VWS V14.01,2013-03-01 13:21:00,
2013-03-01 06:23:00,39.0,19.5,30.20,SSW,204,2.7,6.3,45,0.00,,---,0.00,VWS V14.01,2013-03-01 13:23:00,
2013-03-01 06:24:00,39.2,19.7,30.20,SSW,204,2.7,6.3,45,0.00,,---,0.00,VWS V14.01,2013-03-01 13:24:00,
2013-03-01 06:27:00,39.4,19.3,30.20,SSW,203,0.0,6.3,44,0.00,,---,0.00,VWS V14.01,2013-03-01 13:27:00,
2013-03-01 06:28:00,39.6,19.5,30.20,SSW,203,2.7,6.3,44,0.00,,---,0.00,VWS V14.01,2013-03-01 13:28:00,
2013-03-01 06:29:00,39.6,19.5,30.20,SSW,204,2.2,6.3,44,0.00,,---,0.00,VWS V14.01,2013-03-01 13:29:00,
2013-03-01 06:32:00,39.9,19.8,30.20,SSW,204,0.0,2.7,44,0.00,,---,0.00,VWS V14.01,2013-03-01 13:32:00,
2013-03-01 06:33:00,39.9,19.8,30.20,SSW,204,0.0,2.7,44,0.00,,---,0.00,VWS V14.01,2013-03-01 13:33:00,
2013-03-01 06:34:00,40.1,20.0,30.20,SSW,204,2.7,2.7,44,0.00,,---,0.00,VWS V14.01,2013-03-01 13:34:00,
2013-03-01 06:37:00,40.1,20.0,30.20,SW,235,4.0,4.0,44,0.00,,---,0.00,VWS V14.01,2013-03-01 13:37:00,
2013-03-01 06:38:00,40.1,20.0,30.20,WSW,255,2.7,4.0,44,0.00,,---,0.00,VWS V14.01,2013-03-01 13:38:00,
2013-03-01 06:39:00,40.1,20.0,30.20,West,273,2.7,4.0,44,0.00,,---,0.00,VWS V14.01,2013-03-01 13:39:00,
2013-03-01 06:40:00,40.3,20.1,30.20,West,277,4.0,4.0,44,0.00,,---,0.00,VWS V14.01,2013-03-01 13:40:00,
2013-03-01 06:42:00,40.5,20.3,30.20,SW,230,3.6,4.0,44,0.00,,---,0.00,VWS V14.01,2013-03-01 13:42:00,
2013-03-01 06:43:00,40.6,20.5,30.17,SSW,206,4.0,5.4,44,0.00,,---,0.00,VWS V14.01,2013-03-01 13:43:00,
2013-03-01 06:44:00,40.6,20.5,30.17,SSW,213,5.4,5.4,44,0.00,,---,0.00,VWS V14.01,2013-03-01 13:44:00,
2013-03-01 06:45:00,40.8,20.1,30.17,SW,216,4.9,4.9,43,0.00,,---,0.00,VWS V14.01,2013-03-01 13:45:00,
2013-03-01 06:47:00,41.0,20.2,30.17,SW,217,4.0,4.9,43,0.00,,---,0.00,VWS V14.01,2013-03-01 13:47:00,
2013-03-01 06:48:00,41.2,20.4,30.17,WSW,240,3.6,4.9,43,0.00,,---,0.00,VWS V14.01,2013-03-01 13:48:00,
2013-03-01 06:49:00,41.2,19.9,30.17,WSW,241,3.1,4.9,42,0.00,,---,0.00,VWS V14.01,2013-03-01 13:49:00,
2013-03-01 06:50:00,41.2,19.9,30.17,SW,236,4.0,4.9,42,0.00,,---,0.00,VWS V14.01,2013-03-01 13:50:00,
2013-03-01 06:52:00,41.2,19.9,30.17,SW,223,3.1,4.9,42,0.00,,---,0.00,VWS V14.01,2013-03-01 13:52:00,
2013-03-01 06:54:00,41.2,19.9,30.17,WSW,248,3.6,4.9,42,0.00,,---,0.00,VWS V14.01,2013-03-01 13:54:00,
2013-03-01 06:56:00,41.4,20.0,30.17,West,273,3.1,4.9,42,0.00,,---,0.00,VWS V14.01,2013-03-01 13:56:00,
2013-03-01 06:57:00,41.4,20.0,30.17,WSW,237,3.1,4.9,42,0.00,,---,0.00,VWS V14.01,2013-03-01 13:57:00,
2013-03-01 06:59:00,41.4,20.0,30.17,West,259,3.1,4.9,42,0.00,,---,0.00,VWS V14.01,2013-03-01 13:59:00,
2013-03-01 07:01:00,41.4,20.0,30.17,WSW,242,3.1,4.0,42,0.00,,---,0.00,VWS V14.01,2013-03-01 14:01:00,
2013-03-01 07:02:00,41.4,20.0,30.17,WSW,256,2.7,4.9,42,0.00,,---,0.00,VWS V14.01,2013-03-01 14:02:00,
2013-03-01 07:04:00,41.4,19.5,30.17,SW,222,3.6,4.9,41,0.00,,---,0.00,VWS V14.01,2013-03-01 14:04:00,
2013-03-01 07:06:00,41.4,19.5,30.17,SW,234,3.6,5.8,41,0.00,,---,0.00,VWS V14.01,2013-03-01 14:06:00,
2013-03-01 07:08:00,41.4,19.5,30.17,WSW,258,2.7,5.8,41,0.00,,---,0.00,VWS V14.01,2013-03-01 14:08:00,
2013-03-01 07:09:00,41.4,19.5,30.17,WSW,251,2.7,5.8,41,0.00,,---,0.00,VWS V14.01,2013-03-01 14:09:00,
2013-03-01 07:11:00,41.5,19.6,30.17,West,264,0.0,5.8,41,0.00,,---,0.00,VWS V14.01,2013-03-01 14:11:00,
2013-03-01 07:13:00,41.5,19.6,30.17,WNW,294,2.7,5.8,41,0.00,,---,0.00,VWS V14.01,2013-03-01 14:13:00,
2013-03-01 07:14:00,41.5,19.6,30.17,WNW,286,3.1,5.8,41,0.00,,---,0.00,VWS V14.01,2013-03-01 14:14:00,
2013-03-01 07:16:00,41.5,19.6,30.17,WNW,289,2.7,3.1,41,0.00,,---,0.00,VWS V14.01,2013-03-01 14:16:00,
2013-03-01 07:18:00,41.5,19.6,30.17,WNW,287,2.7,3.6,41,0.00,,---,0.00,VWS V14.01,2013-03-01 14:18:00,
2013-03-01 07:19:00,41.7,19.8,30.17,West,281,2.7,3.6,41,0.00,,---,0.00,VWS V14.01,2013-03-01 14:19:00,
2013-03-01 07:20:00,41.7,19.8,30.17,WNW,295,2.2,3.6,41,0.00,,---,0.00,VWS V14.01,2013-03-01 14:20:00,
2013-03-01 07:21:00,41.7,19.8,30.17,South,183,4.0,4.0,41,0.00,,---,0.00,VWS V14.01,2013-03-01 14:21:00,
2013-03-01 07:23:00,41.7,19.8,30.17,WSW,245,2.2,4.0,41,0.00,,---,0.00,VWS V14.01,2013-03-01 14:23:00,
2013-03-01 07:24:00,41.7,19.8,30.17,NW,326,3.1,4.0,41,0.00,,---,0.00,VWS V14.01,2013-03-01 14:24:00,
2013-03-01 07:25:00,41.9,19.9,30.17,NW,312,3.6,4.0,41,0.00,,---,0.00,VWS V14.01,2013-03-01 14:25:00,
2013-03-01 07:27:00,41.9,19.9,30.17,West,276,4.0,5.4,41,0.00,,---,0.00,VWS V14.01,2013-03-01 14:27:00,
2013-03-01 07:28:00,42.1,20.1,30.17,West,279,2.7,5.4,41,0.00,,---,0.00,VWS V14.01,2013-03-01 14:28:00,
2013-03-01 07:29:00,42.1,19.5,30.17,West,279,3.1,5.4,40,0.00,,---,0.00,VWS V14.01,2013-03-01 14:29:00,
2013-03-01 07:30:00,42.3,19.7,30.17,WNW,303,3.1,5.4,40,0.00,,---,0.00,VWS V14.01,2013-03-01 14:30:00,
2013-03-01 07:32:00,42.3,19.7,30.17,WNW,285,3.6,5.4,40,0.00,,---,0.00,VWS V14.01,2013-03-01 14:32:00,
2013-03-01 07:33:00,42.3,19.7,30.17,West,265,2.7,5.4,40,0.00,,---,0.00,VWS V14.01,2013-03-01 14:33:00,
2013-03-01 07:34:00,42.1,19.5,30.17,WNW,299,4.0,5.4,40,0.00,,---,0.00,VWS V14.01,2013-03-01 14:34:00,
2013-03-01 07:36:00,42.1,19.5,30.17,WNW,294,4.0,5.4,40,0.00,,---,0.00,VWS V14.01,2013-03-01 14:36:00,
2013-03-01 07:37:00,42.1,19.5,30.17,West,281,3.6,5.4,40,0.00,,---,0.00,VWS V14.01,2013-03-01 14:37:00,
2013-03-01 07:39:00,42.3,19.7,30.17,WNW,284,3.6,5.4,40,0.00,,---,0.00,VWS V14.01,2013-03-01 14:39:00,
2013-03-01 07:41:00,42.1,19.5,30.17,West,279,4.9,5.4,40,0.00,,---,0.00,VWS V14.01,2013-03-01 14:41:00,
2013-03-01 07:42:00,42.1,19.5,30.17,West,272,3.6,5.4,40,0.00,,---,0.00,VWS V14.01,2013-03-01 14:42:00,
2013-03-01 07:44:00,42.1,19.5,30.17,WNW,290,2.7,5.4,40,0.00,,---,0.00,VWS V14.01,2013-03-01 14:44:00,
2013-03-01 07:45:00,42.1,19.5,30.17,WNW,292,2.7,5.4,40,0.00,,---,0.00,VWS V14.01,2013-03-01 14:45:00,
2013-03-01 07:46:00,41.9,19.4,30.17,NW,317,3.1,5.8,40,0.00,,---,0.00,VWS V14.01,2013-03-01 14:46:00,
2013-03-01 07:47:00,41.9,19.4,30.17,WSW,241,3.1,5.8,40,0.00,,---,0.00,VWS V14.01,2013-03-01 14:47:00,
2013-03-01 07:49:00,41.7,19.2,30.17,West,265,2.7,5.8,40,0.00,,---,0.00,VWS V14.01,2013-03-01 14:49:00,
2013-03-01 07:50:00,41.7,19.2,30.17,West,268,3.1,5.8,40,0.00,,---,0.00,VWS V14.01,2013-03-01 14:50:00,
2013-03-01 07:51:00,41.7,19.2,30.17,West,271,3.1,5.8,40,0.00,,---,0.00,VWS V14.01,2013-03-01 14:51:00,
2013-03-01 07:52:00,41.5,19.0,30.17,West,263,3.6,6.3,40,0.00,,---,0.00,VWS V14.01,2013-03-01 14:52:00,
2013-03-01 07:54:00,41.5,19.0,30.17,West,272,0.0,6.3,40,0.00,,---,0.00,VWS V14.01,2013-03-01 14:54:00,
2013-03-01 07:55:00,41.7,19.2,30.17,West,269,0.0,6.3,40,0.00,,---,0.00,VWS V14.01,2013-03-01 14:55:00,
2013-03-01 07:56:00,41.7,19.2,30.17,West,271,2.7,6.3,40,0.00,,---,0.00,VWS V14.01,2013-03-01 14:56:00,
2013-03-01 07:57:00,41.7,19.2,30.17,West,266,3.6,6.3,40,0.00,,---,0.00,VWS V14.01,2013-03-01 14:57:00,
2013-03-01 07:59:00,41.7,19.2,30.17,West,268,2.2,6.3,40,0.00,,---,0.00,VWS V14.01,2013-03-01 14:59:00,
2013-03-01 08:00:00,41.7,19.2,30.17,West,268,0.0,6.3,40,0.00,,---,0.00,VWS V14.01,2013-03-01 15:00:00,
2013-03-01 08:01:00,41.7,19.2,30.17,West,277,2.2,4.0,40,0.00,,---,0.00,VWS V14.01,2013-03-01 15:01:00,
2013-03-01 08:02:00,41.7,19.2,30.17,West,278,2.2,4.0,40,0.00,,---,0.00,VWS V14.01,2013-03-01 15:02:00,
2013-03-01 08:04:00,41.7,19.2,30.17,West,278,3.1,4.0,40,0.00,,---,0.00,VWS V14.01,2013-03-01 15:04:00,
2013-03-01 08:05:00,41.9,19.4,30.17,West,274,2.2,4.0,40,0.00,,---,0.00,VWS V14.01,2013-03-01 15:05:00,
2013-03-01 08:06:00,41.9,19.4,30.17,West,279,3.1,4.0,40,0.00,,---,0.00,VWS V14.01,2013-03-01 15:06:00,
2013-03-01 08:07:00,42.1,19.5,30.17,WNW,288,2.7,4.0,40,0.00,,---,0.00,VWS V14.01,2013-03-01 15:07:00,
2013-03-01 08:09:00,42.1,19.5,30.17,WNW,288,2.7,4.0,40,0.00,,---,0.00,VWS V14.01,2013-03-01 15:09:00,
2013-03-01 08:10:00,42.1,19.5,30.17,WNW,288,2.2,4.0,40,0.00,,---,0.00,VWS V14.01,2013-03-01 15:10:00,
2013-03-01 08:11:00,42.3,19.7,30.17,WNW,283,2.7,4.0,40,0.00,,---,0.00,VWS V14.01,2013-03-01 15:11:00,
2013-03-01 08:13:00,42.3,19.7,30.17,WNW,286,4.0,4.0,40,0.00,,---,0.00,VWS V14.01,2013-03-01 15:13:00,
2013-03-01 08:14:00,42.3,19.7,30.17,SW,236,2.7,4.9,40,0.00,,---,0.00,VWS V14.01,2013-03-01 15:14:00,
2013-03-01 08:15:00,42.3,19.7,30.17,West,270,2.7,2.7,40,0.00,,---,0.00,VWS V14.01,2013-03-01 15:15:00,
2013-03-01 08:17:00,42.4,19.8,30.17,NW,308,3.1,4.0,40,0.00,,---,0.00,VWS V14.01,2013-03-01 15:17:00,
2013-03-01 08:18:00,42.4,19.8,30.17,WNW,297,2.7,4.0,40,0.00,,---,0.00,VWS V14.01,2013-03-01 15:18:00,
2013-03-01 08:20:00,42.4,19.8,30.17,WNW,285,2.7,4.9,40,0.00,,---,0.00,VWS V14.01,2013-03-01 15:20:00,
2013-03-01 08:22:00,42.4,19.8,30.17,WNW,282,3.1,4.9,40,0.00,,---,0.00,VWS V14.01,2013-03-01 15:22:00,
2013-03-01 08:23:00,42.3,19.1,30.17,West,267,3.6,5.4,39,0.00,,---,0.00,VWS V14.01,2013-03-01 15:23:00,
2013-03-01 08:25:00,42.3,19.1,30.17,West,260,3.6,5.4,39,0.00,,---,0.00,VWS V14.01,2013-03-01 15:25:00,
2013-03-01 08:27:00,42.3,19.1,30.17,West,279,4.0,5.4,39,0.00,,---,0.00,VWS V14.01,2013-03-01 15:27:00,
2013-03-01 08:28:00,42.4,19.2,30.17,West,280,4.5,5.4,39,0.00,,---,0.00,VWS V14.01,2013-03-01 15:28:00,
2013-03-01 08:30:00,42.4,19.8,30.17,WNW,292,3.6,5.8,40,0.00,,---,0.00,VWS V14.01,2013-03-01 15:30:00,
2013-03-01 08:32:00,42.3,19.1,30.17,West,279,4.0,4.9,39,0.00,,---,0.00,VWS V14.01,2013-03-01 15:32:00,
2013-03-01 08:33:00,42.3,19.1,30.17,West,278,4.0,4.9,39,0.00,,---,0.00,VWS V14.01,2013-03-01 15:33:00,
2013-03-01 08:35:00,42.1,19.5,30.17,West,270,5.8,5.8,40,0.00,,---,0.00,VWS V14.01,2013-03-01 15:35:00,
2013-03-01 08:36:00,42.1,19.5,30.17,West,266,4.0,5.8,40,0.00,,---,0.00,VWS V14.01,2013-03-01 15:36:00,
2013-03-01 08:37:00,41.9,19.4,30.17,West,261,4.0,5.8,40,0.00,,---,0.00,VWS V14.01,2013-03-01 15:37:00,
2013-03-01 08:38:00,41.9,19.4,30.17,SW,236,3.6,5.8,40,0.00,,---,0.00,VWS V14.01,2013-03-01 15:38:00,
2013-03-01 08:40:00,41.7,19.2,30.17,WSW,247,4.9,5.8,40,0.00,,---,0.00,VWS V14.01,2013-03-01 15:40:00,
2013-03-01 08:41:00,41.7,19.2,30.17,West,263,4.0,5.8,40,0.00,,---,0.00,VWS V14.01,2013-03-01 15:41:00,
2013-03-01 08:42:00,41.9,19.4,30.17,WSW,244,3.6,5.8,40,0.00,,---,0.00,VWS V14.01,2013-03-01 15:42:00,
2013-03-01 08:43:00,41.9,19.4,30.17,West,265,6.7,6.7,40,0.00,,---,0.00,VWS V14.01,2013-03-01 15:43:00,
2013-03-01 08:45:00,42.1,19.5,30.17,WSW,257,6.3,6.7,40,0.00,,---,0.00,VWS V14.01,2013-03-01 15:45:00,
2013-03-01 08:47:00,42.3,19.7,30.17,West,265,4.0,6.3,40,0.00,,---,0.00,VWS V14.01,2013-03-01 15:47:00,
2013-03-01 08:48:00,42.4,19.8,30.17,WSW,250,8.1,8.1,40,0.00,,---,0.00,VWS V14.01,2013-03-01 15:48:00,
2013-03-01 08:50:00,42.4,19.8,30.17,SW,226,6.3,8.1,40,0.00,,---,0.00,VWS V14.01,2013-03-01 15:50:00,
2013-03-01 08:52:00,42.4,19.8,30.17,SW,219,5.8,8.1,40,0.00,,---,0.00,VWS V14.01,2013-03-01 15:52:00,
2013-03-01 08:53:00,42.6,19.4,30.17,SW,231,5.8,8.3,39,0.00,,---,0.00,VWS V14.01,2013-03-01 15:53:00,
2013-03-01 08:55:00,42.8,19.6,30.17,SSW,213,4.0,8.3,39,0.00,,---,0.00,VWS V14.01,2013-03-01 15:55:00,
2013-03-01 08:57:00,43.0,19.7,30.17,West,274,5.8,8.3,39,0.00,,---,0.00,VWS V14.01,2013-03-01 15:57:00,
2013-03-01 08:58:00,43.2,19.9,30.17,West,271,5.4,8.3,39,0.00,,---,0.00,VWS V14.01,2013-03-01 15:58:00,
2013-03-01 09:00:00,43.3,20.1,30.17,West,275,5.4,8.3,39,0.00,,---,0.00,VWS V14.01,2013-03-01 16:00:00,
2013-03-01 09:02:00,43.3,20.1,30.17,SW,236,5.4,7.6,39,0.00,,---,0.00,VWS V14.01,2013-03-01 16:02:00,
2013-03-01 09:03:00,43.5,20.2,30.17,SW,225,6.3,7.6,39,0.00,,---,0.00,VWS V14.01,2013-03-01 16:03:00,
2013-03-01 09:04:00,43.5,20.2,30.17,SW,223,3.6,7.6,39,0.00,,---,0.00,VWS V14.01,2013-03-01 16:04:00,
2013-03-01 09:05:00,43.5,20.2,30.17,West,265,3.1,7.6,39,0.00,,---,0.00,VWS V14.01,2013-03-01 16:05:00,
2013-03-01 09:07:00,43.7,20.4,30.17,SW,217,2.7,7.6,39,0.00,,---,0.00,VWS V14.01,2013-03-01 16:07:00,
2013-03-01 09:08:00,43.7,20.4,30.17,SW,217,2.7,7.6,39,0.00,,---,0.00,VWS V14.01,2013-03-01 16:08:00,
2013-03-01 09:09:00,43.9,20.5,30.17,WNW,297,4.0,7.6,39,0.00,,---,0.00,VWS V14.01,2013-03-01 16:09:00,
2013-03-01 09:10:00,43.9,19.9,30.17,West,260,2.7,7.6,38,0.00,,---,0.00,VWS V14.01,2013-03-01 16:10:00,
2013-03-01 09:12:00,43.9,19.9,30.17,SW,230,5.8,7.6,38,0.00,,---,0.00,VWS V14.01,2013-03-01 16:12:00,
2013-03-01 09:13:00,43.9,19.9,30.17,SW,236,4.0,7.6,38,0.00,,---,0.00,VWS V14.01,2013-03-01 16:13:00,
2013-03-01 09:14:00,44.1,20.1,30.17,South,177,3.6,7.6,38,0.00,,---,0.00,VWS V14.01,2013-03-01 16:14:00,
2013-03-01 09:15:00,44.1,20.1,30.17,SSE,147,3.1,3.1,38,0.00,,---,0.00,VWS V14.01,2013-03-01 16:15:00,
2013-03-01 09:18:00,44.2,20.3,30.17,North,7,4.0,4.0,38,0.00,,---,0.00,VWS V14.01,2013-03-01 16:18:00,
2013-03-01 09:19:00,44.1,20.1,30.17,North,357,3.6,4.0,38,0.00,,---,0.00,VWS V14.01,2013-03-01 16:19:00,
2013-03-01 09:20:00,44.1,20.1,30.17,WNW,299,3.1,5.4,38,0.00,,---,0.00,VWS V14.01,2013-03-01 16:20:00,
2013-03-01 09:23:00,43.9,19.9,30.17,West,281,2.7,5.4,38,0.00,,---,0.00,VWS V14.01,2013-03-01 16:23:00,
2013-03-01 09:25:00,44.1,20.1,30.17,West,267,5.4,5.4,38,0.00,,---,0.00,VWS V14.01,2013-03-01 16:25:00,
2013-03-01 09:28:00,44.1,20.1,30.17,NW,312,3.6,5.4,38,0.00,,---,0.00,VWS V14.01,2013-03-01 16:28:00,
2013-03-01 09:30:00,44.1,20.1,30.17,WNW,286,2.2,5.4,38,0.00,,---,0.00,VWS V14.01,2013-03-01 16:30:00,
2013-03-01 09:31:00,44.1,20.1,30.17,NW,318,3.6,3.6,38,0.00,,---,0.00,VWS V14.01,2013-03-01 16:31:00,
2013-03-01 09:33:00,43.7,19.8,30.17,NW,311,3.6,3.6,38,0.00,,---,0.00,VWS V14.01,2013-03-01 16:33:00,
2013-03-01 09:34:00,43.7,19.8,30.17,NW,311,3.6,3.6,38,0.00,,---,0.00,VWS V14.01,2013-03-01 16:34:00,
2013-03-01 09:35:00,43.7,19.8,30.17,NW,315,2.2,4.0,38,0.00,,---,0.00,VWS V14.01,2013-03-01 16:35:00,
2013-03-01 09:36:00,43.7,19.8,30.17,WNW,300,3.1,4.0,38,0.00,,---,0.00,VWS V14.01,2013-03-01 16:36:00,
2013-03-01 09:38:00,43.5,19.6,30.17,NW,314,2.2,4.0,38,0.00,,---,0.00,VWS V14.01,2013-03-01 16:38:00,
2013-03-01 09:39:00,43.5,19.6,30.17,NW,312,2.7,4.0,38,0.00,,---,0.00,VWS V14.01,2013-03-01 16:39:00,
2013-03-01 09:40:00,43.5,19.6,30.17,WNW,285,3.6,4.0,38,0.00,,---,0.00,VWS V14.01,2013-03-01 16:40:00,
2013-03-01 09:41:00,43.5,19.6,30.17,WNW,296,3.6,4.0,38,0.00,,---,0.00,VWS V14.01,2013-03-01 16:41:00,
2013-03-01 09:44:00,43.5,19.6,30.17,WNW,303,3.6,4.0,38,0.00,,---,0.00,VWS V14.01,2013-03-01 16:44:00,
2013-03-01 09:45:00,43.5,19.6,30.17,NW,314,3.1,5.4,38,0.00,,---,0.00,VWS V14.01,2013-03-01 16:45:00,
2013-03-01 09:46:00,43.5,19.6,30.17,NW,312,3.6,5.4,38,0.00,,---,0.00,VWS V14.01,2013-03-01 16:46:00,
2013-03-01 09:49:00,43.7,19.8,30.17,WNW,300,3.1,5.4,38,0.00,,---,0.00,VWS V14.01,2013-03-01 16:49:00,
2013-03-01 09:50:00,43.7,19.8,30.17,NW,316,2.7,5.4,38,0.00,,---,0.00,VWS V14.01,2013-03-01 16:50:00,
2013-03-01 09:51:00,43.7,19.8,30.17,NW,316,0.0,5.4,38,0.00,,---,0.00,VWS V14.01,2013-03-01 16:51:00,
2013-03-01 09:54:00,43.9,19.9,30.17,NW,316,0.0,5.4,38,0.00,,---,0.00,VWS V14.01,2013-03-01 16:54:00,
2013-03-01 09:55:00,44.1,20.1,30.17,SE,143,2.7,5.4,38,0.00,,---,0.00,VWS V14.01,2013-03-01 16:55:00,
2013-03-01 09:56:00,44.1,20.1,30.17,SSE,168,2.7,5.4,38,0.00,,---,0.00,VWS V14.01,2013-03-01 16:56:00,
2013-03-01 09:59:00,44.4,20.4,30.20,ESE,121,0.0,5.4,38,0.00,,---,0.00,VWS V14.01,2013-03-01 16:59:00,
2013-03-01 10:00:00,44.6,20.6,30.20,ESE,121,0.0,0.0,38,0.00,,---,0.00,VWS V14.01,2013-03-01 17:00:00,
2013-03-01 10:01:00,44.8,20.7,30.20,ESE,121,0.0,0.0,38,0.00,,---,0.00,VWS V14.01,2013-03-01 17:01:00,
2013-03-01 10:05:00,45.0,20.9,30.20,ESE,102,0.0,0.0,38,0.00,,---,0.00,VWS V14.01,2013-03-01 17:05:00,
2013-03-01 10:07:00,45.3,21.2,30.20,SSW,195,3.6,3.6,38,0.00,,---,0.00,VWS V14.01,2013-03-01 17:07:00,
2013-03-01 10:10:00,45.3,21.2,30.20,SSW,199,3.1,4.0,38,0.00,,---,0.00,VWS V14.01,2013-03-01 17:10:00,
2013-03-01 10:11:00,45.5,21.4,30.20,SW,223,3.1,4.9,38,0.00,,---,0.00,VWS V14.01,2013-03-01 17:11:00,
2013-03-01 10:12:00,45.5,20.8,30.20,SSW,196,4.0,4.9,37,0.00,,---,0.00,VWS V14.01,2013-03-01 17:12:00,
2013-03-01 10:15:00,45.7,20.9,30.20,SSW,204,4.5,4.5,37,0.00,,---,0.00,VWS V14.01,2013-03-01 17:15:00,
2013-03-01 10:16:00,45.9,21.1,30.20,SSW,206,4.0,4.9,37,0.00,,---,0.00,VWS V14.01,2013-03-01 17:16:00,
2013-03-01 10:18:00,46.0,21.2,30.20,SW,226,3.6,4.9,37,0.00,,---,0.00,VWS V14.01,2013-03-01 17:18:00,
2013-03-01 10:20:00,46.2,21.4,30.20,SSW,203,3.6,4.9,37,0.00,,---,0.00,VWS V14.01,2013-03-01 17:20:00,
2013-03-01 10:21:00,46.2,21.4,30.20,SSW,196,3.6,4.9,37,0.00,,---,0.00,VWS V14.01,2013-03-01 17:21:00,
2013-03-01 10:23:00,46.4,21.6,30.20,SSW,200,4.0,4.9,37,0.00,,---,0.00,VWS V14.01,2013-03-01 17:23:00,
2013-03-01 10:25:00,46.6,21.1,30.20,South,181,6.3,8.7,36,0.00,,---,0.00,VWS V14.01,2013-03-01 17:25:00,
2013-03-01 10:26:00,46.8,21.2,30.20,South,189,3.6,8.7,36,0.00,,---,0.00,VWS V14.01,2013-03-01 17:26:00,
2013-03-01 10:28:00,46.8,21.2,30.20,South,186,3.1,8.7,36,0.00,,---,0.00,VWS V14.01,2013-03-01 17:28:00,
2013-03-01 10:30:00,46.9,20.7,30.20,SSW,201,5.4,5.4,35,0.00,,---,0.00,VWS V14.01,2013-03-01 17:30:00,
2013-03-01 10:31:00,46.9,20.7,30.20,SSW,201,5.4,5.4,35,0.00,,---,0.00,VWS V14.01,2013-03-01 17:31:00,
2013-03-01 10:32:00,46.9,20.7,30.20,SSW,193,4.0,5.4,35,0.00,,---,0.00,VWS V14.01,2013-03-01 17:32:00,
2013-03-01 10:33:00,46.9,20.0,30.20,SSW,206,4.9,5.4,34,0.00,,---,0.00,VWS V14.01,2013-03-01 17:33:00,
2013-03-01 10:36:00,47.1,20.2,30.20,South,190,3.6,5.4,34,0.00,,---,0.00,VWS V14.01,2013-03-01 17:36:00,
2013-03-01 10:37:00,47.3,20.4,30.20,South,190,4.9,5.4,34,0.00,,---,0.00,VWS V14.01,2013-03-01 17:37:00,
2013-03-01 10:38:00,47.3,20.4,30.20,South,180,3.1,5.4,34,0.00,,---,0.00,VWS V14.01,2013-03-01 17:38:00,
2013-03-01 10:41:00,47.3,20.4,30.20,South,179,2.7,5.4,34,0.00,,---,0.00,VWS V14.01,2013-03-01 17:41:00,
2013-03-01 10:42:00,47.3,20.4,30.20,SSW,195,4.0,5.8,34,0.00,,---,0.00,VWS V14.01,2013-03-01 17:42:00,
2013-03-01 10:43:00,47.3,20.4,30.20,West,281,3.6,6.3,34,0.00,,---,0.00,VWS V14.01,2013-03-01 17:43:00,
2013-03-01 10:46:00,47.3,20.4,30.20,NW,325,4.9,4.9,34,0.00,,---,0.00,VWS V14.01,2013-03-01 17:46:00,
2013-03-01 10:47:00,47.1,20.2,30.20,WSW,256,5.8,5.8,34,0.00,,---,0.00,VWS V14.01,2013-03-01 17:47:00,
2013-03-01 10:48:00,47.1,20.2,30.20,West,276,5.8,5.8,34,0.00,,---,0.00,VWS V14.01,2013-03-01 17:48:00,
2013-03-01 10:51:00,46.8,19.9,30.20,SSW,202,3.1,5.8,34,0.00,,---,0.00,VWS V14.01,2013-03-01 17:51:00,
2013-03-01 10:52:00,46.8,19.9,30.20,SSW,210,4.9,5.8,34,0.00,,---,0.00,VWS V14.01,2013-03-01 17:52:00,
2013-03-01 10:53:00,46.6,19.0,30.20,SSW,212,4.9,6.3,33,0.00,,---,0.00,VWS V14.01,2013-03-01 17:53:00,
2013-03-01 10:56:00,46.6,19.7,30.20,West,279,2.7,6.3,34,0.00,,---,0.00,VWS V14.01,2013-03-01 17:56:00,
2013-03-01 10:57:00,46.6,19.7,30.20,SW,214,7.6,7.6,34,0.00,,---,0.00,VWS V14.01,2013-03-01 17:57:00,
2013-03-01 10:58:00,46.6,19.7,30.20,WSW,256,2.2,8.7,34,0.00,,---,0.00,VWS V14.01,2013-03-01 17:58:00,
2013-03-01 11:01:00,46.4,19.6,30.20,West,280,3.6,5.8,34,0.00,,---,0.00,VWS V14.01,2013-03-01 18:01:00,
2013-03-01 11:02:00,46.4,19.6,30.20,West,265,3.6,5.8,34,0.00,,---,0.00,VWS V14.01,2013-03-01 18:02:00,
2013-03-01 11:03:00,46.4,19.6,30.20,SSW,205,3.6,5.8,34,0.00,,---,0.00,VWS V14.01,2013-03-01 18:03:00,
2013-03-01 11:06:00,46.2,19.4,30.20,WSW,241,3.1,5.8,34,0.00,,---,0.00,VWS V14.01,2013-03-01 18:06:00,
2013-03-01 11:07:00,46.2,19.4,30.20,West,260,4.9,5.8,34,0.00,,---,0.00,VWS V14.01,2013-03-01 18:07:00,
2013-03-01 11:08:00,46.2,19.4,30.20,WSW,249,3.1,5.8,34,0.00,,---,0.00,VWS V14.01,2013-03-01 18:08:00,
2013-03-01 11:12:00,46.0,19.3,30.20,SSW,205,4.0,7.6,34,0.00,,---,0.00,VWS V14.01,2013-03-01 18:12:00,
2013-03-01 11:13:00,46.0,19.3,30.20,SSW,212,4.0,7.6,34,0.00,,---,0.00,VWS V14.01,2013-03-01 18:13:00,
2013-03-01 11:17:00,46.0,19.3,30.20,WSW,242,3.1,3.1,34,0.00,,---,0.00,VWS V14.01,2013-03-01 18:17:00,
2013-03-01 11:18:00,46.0,19.9,30.20,WSW,249,3.1,4.0,35,0.00,,---,0.00,VWS V14.01,2013-03-01 18:18:00,
2013-03-01 11:19:00,45.9,19.8,30.20,WSW,252,3.1,4.0,35,0.00,,---,0.00,VWS V14.01,2013-03-01 18:19:00,
2013-03-01 11:22:00,45.9,19.8,30.20,SSW,207,2.7,4.0,35,0.00,,---,0.00,VWS V14.01,2013-03-01 18:22:00,
2013-03-01 11:23:00,45.7,19.6,30.20,WSW,253,3.1,4.0,35,0.00,,---,0.00,VWS V14.01,2013-03-01 18:23:00,
2013-03-01 11:24:00,45.7,19.6,30.20,SSW,206,5.4,5.8,35,0.00,,---,0.00,VWS V14.01,2013-03-01 18:24:00,
2013-03-01 11:27:00,45.7,19.6,30.20,SW,215,2.7,7.6,35,0.00,,---,0.00,VWS V14.01,2013-03-01 18:27:00,
2013-03-01 11:28:00,45.5,19.5,30.20,West,272,4.0,8.7,35,0.00,,---,0.00,VWS V14.01,2013-03-01 18:28:00,
2013-03-01 11:29:00,45.5,19.5,30.20,SW,221,3.6,8.7,35,0.00,,---,0.00,VWS V14.01,2013-03-01 18:29:00,
2013-03-01 11:32:00,45.5,19.5,30.20,West,271,3.1,4.9,35,0.00,,---,0.00,VWS V14.01,2013-03-01 18:32:00,
2013-03-01 11:33:00,45.5,19.5,30.20,WSW,241,3.1,4.9,35,0.00,,---,0.00,VWS V14.01,2013-03-01 18:33:00,
2013-03-01 11:34:00,45.5,19.5,30.20,SW,236,4.0,4.9,35,0.00,,---,0.00,VWS V14.01,2013-03-01 18:34:00,
2013-03-01 11:37:00,45.3,19.3,30.20,SSW,204,3.1,5.4,35,0.00,,---,0.00,VWS V14.01,2013-03-01 18:37:00,
2013-03-01 11:38:00,45.3,19.3,30.20,SW,236,4.0,5.4,35,0.00,,---,0.00,VWS V14.01,2013-03-01 18:38:00,
2013-03-01 11:39:00,45.3,20.0,30.20,SW,236,2.7,5.4,36,0.00,,---,0.00,VWS V14.01,2013-03-01 18:39:00,
2013-03-01 11:43:00,45.1,19.8,30.20,SW,217,4.9,5.4,36,0.00,,---,0.00,VWS V14.01,2013-03-01 18:43:00,
2013-03-01 11:44:00,45.1,19.8,30.20,SW,233,3.6,5.4,36,0.00,,---,0.00,VWS V14.01,2013-03-01 18:44:00,
2013-03-01 11:45:00,45.1,19.8,30.20,WSW,240,4.0,5.4,36,0.00,,---,0.00,VWS V14.01,2013-03-01 18:45:00,
2013-03-01 11:48:00,45.1,19.1,30.20,SW,219,4.0,8.3,35,0.00,,---,0.00,VWS V14.01,2013-03-01 18:48:00,
2013-03-01 11:49:00,45.3,19.3,30.20,SW,234,3.1,8.3,35,0.00,,---,0.00,VWS V14.01,2013-03-01 18:49:00,
2013-03-01 11:50:00,45.3,19.3,30.20,SW,232,4.0,8.3,35,0.00,,---,0.00,VWS V14.01,2013-03-01 18:50:00,
2013-03-01 11:54:00,45.3,19.3,30.20,WSW,240,4.0,8.3,35,0.00,,---,0.00,VWS V14.01,2013-03-01 18:54:00,
2013-03-01 11:55:00,45.3,19.3,30.20,WSW,237,3.6,8.3,35,0.00,,---,0.00,VWS V14.01,2013-03-01 18:55:00,
2013-03-01 11:59:00,45.5,19.5,30.20,SSW,195,8.1,8.3,35,0.00,,---,0.00,VWS V14.01,2013-03-01 18:59:00,
2013-03-01 12:00:00,45.5,19.5,30.20,SSW,213,5.8,5.8,35,0.00,,---,0.00,VWS V14.01,2013-03-01 19:00:00,
2013-03-01 12:04:00,45.7,19.6,30.20,SSW,200,8.1,11.0,35,0.00,,---,0.00,VWS V14.01,2013-03-01 19:04:00,
2013-03-01 12:05:00,45.9,19.8,30.20,WSW,248,4.5,11.0,35,0.00,,---,0.00,VWS V14.01,2013-03-01 19:05:00,
2013-03-01 12:09:00,46.0,19.9,30.20,SSW,193,6.3,11.0,35,0.00,,---,0.00,VWS V14.01,2013-03-01 19:09:00,
2013-03-01 12:10:00,46.0,19.3,30.20,SSW,211,5.4,11.0,34,0.00,,---,0.00,VWS V14.01,2013-03-01 19:10:00,
2013-03-01 12:14:00,46.2,19.4,30.17,SSW,201,6.3,11.0,34,0.00,,---,0.00,VWS V14.01,2013-03-01 19:14:00,
2013-03-01 12:15:00,46.2,19.4,30.17,SSW,207,5.4,11.0,34,0.00,,---,0.00,VWS V14.01,2013-03-01 19:15:00,
2013-03-01 12:16:00,46.2,19.4,30.17,SW,215,4.0,6.3,34,0.00,,---,0.00,VWS V14.01,2013-03-01 19:16:00,
2013-03-01 12:19:00,46.2,20.1,30.17,WSW,257,2.2,6.3,35,0.00,,---,0.00,VWS V14.01,2013-03-01 19:19:00,
2013-03-01 12:20:00,46.0,19.3,30.17,WSW,250,3.6,6.3,34,0.00,,---,0.00,VWS V14.01,2013-03-01 19:20:00,
2013-03-01 12:21:00,46.0,19.3,30.17,SW,235,3.1,6.3,34,0.00,,---,0.00,VWS V14.01,2013-03-01 19:21:00,
2013-03-01 12:24:00,46.0,19.3,30.17,SSW,199,6.3,7.6,34,0.00,,---,0.00,VWS V14.01,2013-03-01 19:24:00,
2013-03-01 12:25:00,46.0,19.3,30.17,WSW,246,4.0,7.6,34,0.00,,---,0.00,VWS V14.01,2013-03-01 19:25:00,
2013-03-01 12:26:00,46.2,19.4,30.17,SSW,209,2.7,7.6,34,0.00,,---,0.00,VWS V14.01,2013-03-01 19:26:00,
2013-03-01 12:29:00,46.2,19.4,30.17,SSW,208,5.4,7.6,34,0.00,,---,0.00,VWS V14.01,2013-03-01 19:29:00,
2013-03-01 12:30:00,46.2,19.4,30.17,SSW,210,4.0,7.6,34,0.00,,---,0.00,VWS V14.01,2013-03-01 19:30:00,
2013-03-01 12:32:00,46.2,19.4,30.17,SW,234,2.2,4.0,34,0.00,,---,0.00,VWS V14.01,2013-03-01 19:32:00,
2013-03-01 12:34:00,46.2,19.4,30.17,SSW,202,5.4,5.8,34,0.00,,---,0.00,VWS V14.01,2013-03-01 19:34:00,
2013-03-01 12:35:00,46.2,19.4,30.17,SSW,202,7.6,7.6,34,0.00,,---,0.00,VWS V14.01,2013-03-01 19:35:00,
2013-03-01 12:37:00,46.2,19.4,30.17,WSW,242,4.0,7.6,34,0.00,,---,0.00,VWS V14.01,2013-03-01 19:37:00,
2013-03-01 12:40:00,46.4,19.6,30.17,SSW,209,4.0,8.1,34,0.00,,---,0.00,VWS V14.01,2013-03-01 19:40:00,
2013-03-01 12:41:00,46.4,19.6,30.17,SSW,200,3.6,8.1,34,0.00,,---,0.00,VWS V14.01,2013-03-01 19:41:00,
2013-03-01 12:42:00,46.4,19.6,30.17,WSW,246,3.1,8.1,34,0.00,,---,0.00,VWS V14.01,2013-03-01 19:42:00,
2013-03-01 12:45:00,46.4,19.6,30.17,SSW,199,3.1,8.1,34,0.00,,---,0.00,VWS V14.01,2013-03-01 19:45:00,
2013-03-01 12:46:00,46.2,19.4,30.17,SSW,194,5.8,5.8,34,0.00,,---,0.00,VWS V14.01,2013-03-01 19:46:00,
2013-03-01 12:47:00,46.4,19.6,30.17,SSW,211,3.1,5.8,34,0.00,,---,0.00,VWS V14.01,2013-03-01 19:47:00,
2013-03-01 12:50:00,46.4,18.9,30.17,SSW,198,4.9,6.3,33,0.00,,---,0.00,VWS V14.01,2013-03-01 19:50:00,
2013-03-01 12:51:00,46.6,19.7,30.17,SW,218,3.1,6.3,34,0.00,,---,0.00,VWS V14.01,2013-03-01 19:51:00,
2013-03-01 12:52:00,46.6,19.7,30.17,SW,223,0.0,6.3,34,0.00,,---,0.00,VWS V14.01,2013-03-01 19:52:00,
2013-03-01 12:55:00,46.6,19.7,30.17,WSW,243,3.1,6.3,34,0.00,,---,0.00,VWS V14.01,2013-03-01 19:55:00,
2013-03-01 12:56:00,46.6,19.7,30.17,West,263,4.0,6.3,34,0.00,,---,0.00,VWS V14.01,2013-03-01 19:56:00,
2013-03-01 12:58:00,46.6,19.7,30.17,WSW,247,3.1,6.3,34,0.00,,---,0.00,VWS V14.01,2013-03-01 19:58:00,
2013-03-01 13:00:00,46.6,19.0,30.17,WSW,253,2.7,4.0,33,0.00,,---,0.00,VWS V14.01,2013-03-01 20:00:00,
2013-03-01 13:01:00,46.6,19.7,30.17,SW,229,3.6,4.0,34,0.00,,---,0.00,VWS V14.01,2013-03-01 20:01:00,
2013-03-01 13:03:00,46.8,19.9,30.17,SW,215,2.7,4.0,34,0.00,,---,0.00,VWS V14.01,2013-03-01 20:03:00,
2013-03-01 13:05:00,46.8,19.2,30.17,WSW,254,4.9,4.9,33,0.00,,---,0.00,VWS V14.01,2013-03-01 20:05:00,
2013-03-01 13:06:00,46.8,19.2,30.17,South,182,5.4,5.4,33,0.00,,---,0.00,VWS V14.01,2013-03-01 20:06:00,
2013-03-01 13:08:00,46.9,19.4,30.17,West,278,4.0,6.3,33,0.00,,---,0.00,VWS V14.01,2013-03-01 20:08:00,
2013-03-01 13:10:00,47.1,19.5,30.17,WNW,284,5.4,6.3,33,0.00,,---,0.00,VWS V14.01,2013-03-01 20:10:00,
2013-03-01 13:11:00,47.3,19.7,30.17,West,280,2.7,6.3,33,0.00,,---,0.00,VWS V14.01,2013-03-01 20:11:00,
2013-03-01 13:13:00,47.3,19.7,30.17,West,270,5.4,6.3,33,0.00,,---,0.00,VWS V14.01,2013-03-01 20:13:00,
2013-03-01 13:15:00,47.5,19.1,30.17,WSW,244,3.6,5.4,32,0.00,,---,0.00,VWS V14.01,2013-03-01 20:15:00,
2013-03-01 13:16:00,47.5,19.1,30.17,WSW,253,5.4,5.4,32,0.00,,---,0.00,VWS V14.01,2013-03-01 20:16:00,
2013-03-01 13:18:00,47.8,19.4,30.17,WSW,247,3.6,6.3,32,0.00,,---,0.00,VWS V14.01,2013-03-01 20:18:00,
2013-03-01 13:21:00,47.8,19.4,30.17,SW,232,3.6,6.3,32,0.00,,---,0.00,VWS V14.01,2013-03-01 20:21:00,
2013-03-01 13:23:00,48.0,19.6,30.17,South,187,5.8,6.3,32,0.00,,---,0.00,VWS V14.01,2013-03-01 20:23:00,
2013-03-01 13:26:00,48.4,19.9,30.17,SSW,205,4.0,7.6,32,0.00,,---,0.00,VWS V14.01,2013-03-01 20:26:00,
2013-03-01 13:27:00,48.4,19.2,30.17,SW,234,3.6,7.6,31,0.00,,---,0.00,VWS V14.01,2013-03-01 20:27:00,
2013-03-01 13:29:00,48.7,19.5,30.20,West,272,3.6,7.6,31,0.00,,---,0.00,VWS V14.01,2013-03-01 20:29:00,
2013-03-01 13:31:00,48.7,19.5,30.20,West,270,4.9,5.8,31,0.00,,---,0.00,VWS V14.01,2013-03-01 20:31:00,
2013-03-01 13:32:00,48.7,19.5,30.20,WSW,237,3.6,5.8,31,0.00,,---,0.00,VWS V14.01,2013-03-01 20:32:00,
2013-03-01 13:34:00,48.9,19.6,30.20,SSW,208,3.1,5.8,31,0.00,,---,0.00,VWS V14.01,2013-03-01 20:34:00,
2013-03-01 13:36:00,48.9,19.6,30.20,SSW,204,5.4,6.3,31,0.00,,---,0.00,VWS V14.01,2013-03-01 20:36:00,
2013-03-01 13:37:00,49.1,19.8,30.20,South,186,4.0,6.3,31,0.00,,---,0.00,VWS V14.01,2013-03-01 20:37:00,
2013-03-01 13:39:00,49.3,19.9,30.20,SW,218,4.0,6.3,31,0.00,,---,0.00,VWS V14.01,2013-03-01 20:39:00,
2013-03-01 13:41:00,49.5,20.1,30.20,SSW,202,0.0,6.3,31,0.00,,---,0.00,VWS V14.01,2013-03-01 20:41:00,
2013-03-01 13:42:00,49.5,20.1,30.20,SSW,202,0.0,6.3,31,0.00,,---,0.00,VWS V14.01,2013-03-01 20:42:00,
2013-03-01 13:45:00,49.5,20.1,30.20,SW,221,3.1,6.3,31,0.00,,---,0.00,VWS V14.01,2013-03-01 20:45:00,
2013-03-01 13:46:00,49.6,20.3,30.20,SSW,207,3.6,3.6,31,0.00,,---,0.00,VWS V14.01,2013-03-01 20:46:00,
2013-03-01 13:47:00,49.6,20.3,30.20,SSW,210,2.7,3.6,31,0.00,,---,0.00,VWS V14.01,2013-03-01 20:47:00,
2013-03-01 13:50:00,49.6,19.5,30.20,SW,230,0.0,3.6,30,0.00,,---,0.00,VWS V14.01,2013-03-01 20:50:00,
2013-03-01 13:51:00,49.6,19.5,30.20,SW,230,0.0,3.6,30,0.00,,---,0.00,VWS V14.01,2013-03-01 20:51:00,
2013-03-01 13:52:00,49.6,19.5,30.20,SW,230,2.2,3.6,30,0.00,,---,0.00,VWS V14.01,2013-03-01 20:52:00,
2013-03-01 13:55:00,49.8,19.6,30.20,NW,322,4.9,4.9,30,0.00,,---,0.00,VWS V14.01,2013-03-01 20:55:00,
2013-03-01 13:57:00,50.0,19.8,30.20,WNW,295,5.8,5.8,30,0.00,,---,0.00,VWS V14.01,2013-03-01 20:57:00,
2013-03-01 14:00:00,50.0,19.8,30.20,WSW,258,3.6,3.6,30,0.00,,---,0.00,VWS V14.01,2013-03-01 21:00:00,
2013-03-01 14:02:00,50.0,19.0,30.20,SW,233,8.3,8.3,29,0.00,,---,0.00,VWS V14.01,2013-03-01 21:02:00,
2013-03-01 14:03:00,50.0,19.0,30.20,WNW,286,5.8,8.7,29,0.00,,---,0.00,VWS V14.01,2013-03-01 21:03:00,
2013-03-01 14:05:00,50.0,19.0,30.20,WNW,289,3.6,8.7,29,0.00,,---,0.00,VWS V14.01,2013-03-01 21:05:00,
2013-03-01 14:07:00,50.0,19.0,30.20,WNW,286,2.7,8.7,29,0.00,,---,0.00,VWS V14.01,2013-03-01 21:07:00,
2013-03-01 14:08:00,50.2,19.2,30.20,WNW,284,3.1,8.7,29,0.00,,---,0.00,VWS V14.01,2013-03-01 21:08:00,
2013-03-01 14:10:00,50.4,19.3,30.20,West,260,2.7,8.7,29,0.00,,---,0.00,VWS V14.01,2013-03-01 21:10:00,
2013-03-01 14:12:00,50.5,19.5,30.20,WNW,302,2.7,8.7,29,0.00,,---,0.00,VWS V14.01,2013-03-01 21:12:00,
2013-03-01 14:13:00,50.7,19.6,30.20,WNW,301,0.0,8.7,29,0.00,,---,0.00,VWS V14.01,2013-03-01 21:13:00,
2013-03-01 14:15:00,50.7,19.6,30.20,WNW,286,2.2,2.7,29,0.00,,---,0.00,VWS V14.01,2013-03-01 21:15:00,
2013-03-01 14:17:00,50.9,19.8,30.20,SW,217,5.4,5.4,29,0.00,,---,0.00,VWS V14.01,2013-03-01 21:17:00,
2013-03-01 14:18:00,50.9,19.8,30.20,West,278,3.6,7.6,29,0.00,,---,0.00,VWS V14.01,2013-03-01 21:18:00,
2013-03-01 14:20:00,50.9,19.8,30.20,NNW,346,2.2,7.6,29,0.00,,---,0.00,VWS V14.01,2013-03-01 21:20:00,
2013-03-01 14:22:00,50.9,19.8,30.20,WSW,243,2.2,7.6,29,0.00,,---,0.00,VWS V14.01,2013-03-01 21:22:00,
2013-03-01 14:23:00,50.9,19.8,30.20,SE,143,3.1,7.6,29,0.00,,---,0.00,VWS V14.01,2013-03-01 21:23:00,
2013-03-01 14:25:00,51.1,19.1,30.20,West,278,4.0,8.1,28,0.00,,---,0.00,VWS V14.01,2013-03-01 21:25:00,
2013-03-01 14:27:00,51.4,19.4,30.20,NW,310,2.7,8.1,28,0.00,,---,0.00,VWS V14.01,2013-03-01 21:27:00,
2013-03-01 14:28:00,51.4,19.4,30.20,West,274,2.7,8.1,28,0.00,,---,0.00,VWS V14.01,2013-03-01 21:28:00,
2013-03-01 14:30:00,51.8,19.8,30.20,NW,305,3.6,3.6,28,0.00,,---,0.00,VWS V14.01,2013-03-01 21:30:00,
2013-03-01 14:33:00,52.2,20.1,30.20,ESE,122,2.7,3.6,28,0.00,,---,0.00,VWS V14.01,2013-03-01 21:33:00,
2013-03-01 14:36:00,52.7,19.7,30.20,NW,310,0.0,5.4,27,0.00,,---,0.00,VWS V14.01,2013-03-01 21:36:00,
2013-03-01 14:38:00,53.1,20.8,30.20,WNW,301,3.1,5.4,28,0.00,,---,0.00,VWS V14.01,2013-03-01 21:38:00,
2013-03-01 14:41:00,53.2,20.1,30.20,WNW,282,0.0,5.4,27,0.00,,---,0.00,VWS V14.01,2013-03-01 21:41:00,
2013-03-01 14:43:00,53.4,20.3,30.20,West,271,6.3,6.3,27,0.00,,---,0.00,VWS V14.01,2013-03-01 21:43:00,
2013-03-01 14:44:00,53.6,20.5,30.20,West,281,3.6,6.3,27,0.00,,---,0.00,VWS V14.01,2013-03-01 21:44:00,
2013-03-01 14:46:00,53.6,20.5,30.20,NW,304,3.1,3.6,27,0.00,,---,0.00,VWS V14.01,2013-03-01 21:46:00,
2013-03-01 14:48:00,53.6,20.5,30.20,WNW,302,3.6,4.0,27,0.00,,---,0.00,VWS V14.01,2013-03-01 21:48:00,
2013-03-01 14:49:00,53.6,19.6,30.20,WSW,243,6.3,6.3,26,0.00,,---,0.00,VWS V14.01,2013-03-01 21:49:00,
2013-03-01 14:52:00,53.2,20.1,30.20,West,278,3.1,6.3,27,0.00,,---,0.00,VWS V14.01,2013-03-01 21:52:00,
2013-03-01 14:53:00,53.2,20.1,30.20,NW,316,3.1,6.3,27,0.00,,---,0.00,VWS V14.01,2013-03-01 21:53:00,
2013-03-01 14:54:00,53.1,20.0,30.20,West,264,2.7,6.3,27,0.00,,---,0.00,VWS V14.01,2013-03-01 21:54:00,
2013-03-01 14:57:00,52.9,19.8,30.20,WNW,294,4.0,6.3,27,0.00,,---,0.00,VWS V14.01,2013-03-01 21:57:00,
2013-03-01 14:58:00,52.7,19.7,30.20,SW,226,4.0,6.3,27,0.00,,---,0.00,VWS V14.01,2013-03-01 21:58:00,
2013-03-01 14:59:00,52.7,19.7,30.20,SW,214,3.6,6.3,27,0.00,,---,0.00,VWS V14.01,2013-03-01 21:59:00,
2013-03-01 15:02:00,52.5,19.5,30.20,WNW,299,4.0,4.0,27,0.00,,---,0.00,VWS V14.01,2013-03-01 22:02:00,
2013-03-01 15:03:00,52.3,19.4,30.20,NW,321,3.6,4.0,27,0.00,,---,0.00,VWS V14.01,2013-03-01 22:03:00,
2013-03-01 15:04:00,52.3,19.4,30.20,NW,312,3.6,4.0,27,0.00,,---,0.00,VWS V14.01,2013-03-01 22:04:00,
2013-03-01 15:05:00,52.3,19.4,30.20,West,275,2.2,4.0,27,0.00,,---,0.00,VWS V14.01,2013-03-01 22:05:00,
2013-03-01 15:07:00,52.3,19.4,30.20,SW,220,3.6,4.0,27,0.00,,---,0.00,VWS V14.01,2013-03-01 22:07:00,
2013-03-01 15:08:00,52.3,19.4,30.20,West,272,3.1,4.0,27,0.00,,---,0.00,VWS V14.01,2013-03-01 22:08:00,
2013-03-01 15:09:00,52.3,19.4,30.20,West,272,3.1,4.0,27,0.00,,---,0.00,VWS V14.01,2013-03-01 22:09:00,
2013-03-01 15:10:00,52.3,19.4,30.20,WNW,288,2.7,4.0,27,0.00,,---,0.00,VWS V14.01,2013-03-01 22:10:00,
2013-03-01 15:12:00,52.3,19.4,30.20,NNW,331,0.0,4.0,27,0.00,,---,0.00,VWS V14.01,2013-03-01 22:12:00,
2013-03-01 15:14:00,52.2,19.2,30.20,WNW,296,4.0,6.3,27,0.00,,---,0.00,VWS V14.01,2013-03-01 22:14:00,
2013-03-01 15:15:00,52.2,19.2,30.20,North,357,2.7,3.6,27,0.00,,---,0.00,VWS V14.01,2013-03-01 22:15:00,
2013-03-01 15:17:00,52.0,19.1,30.20,West,280,3.1,3.6,27,0.00,,---,0.00,VWS V14.01,2013-03-01 22:17:00,
2013-03-01 15:19:00,51.8,18.9,30.20,WNW,295,2.2,3.6,27,0.00,,---,0.00,VWS V14.01,2013-03-01 22:19:00,
2013-03-01 15:20:00,51.6,18.8,30.20,WNW,298,0.0,3.6,27,0.00,,---,0.00,VWS V14.01,2013-03-01 22:20:00,
2013-03-01 15:22:00,51.6,18.8,30.20,WNW,300,3.1,3.6,27,0.00,,---,0.00,VWS V14.01,2013-03-01 22:22:00,
2013-03-01 15:24:00,51.4,18.6,30.20,WNW,284,0.0,3.6,27,0.00,,---,0.00,VWS V14.01,2013-03-01 22:24:00,
2013-03-01 15:26:00,51.4,18.6,30.20,North,353,2.7,3.6,27,0.00,,---,0.00,VWS V14.01,2013-03-01 22:26:00,
2013-03-01 15:27:00,51.4,18.6,30.20,North,350,0.0,3.6,27,0.00,,---,0.00,VWS V14.01,2013-03-01 22:27:00,
2013-03-01 15:29:00,51.4,18.6,30.20,NNW,346,2.2,4.0,27,0.00,,---,0.00,VWS V14.01,2013-03-01 22:29:00,
2013-03-01 15:31:00,51.3,18.4,30.20,WNW,298,0.0,5.8,27,0.00,,---,0.00,VWS V14.01,2013-03-01 22:31:00,
2013-03-01 15:32:00,51.3,18.4,30.20,West,274,3.6,5.8,27,0.00,,---,0.00,VWS V14.01,2013-03-01 22:32:00,
2013-03-01 15:34:00,51.3,18.4,30.20,NNW,345,3.1,5.8,27,0.00,,---,0.00,VWS V14.01,2013-03-01 22:34:00,
2013-03-01 15:36:00,51.1,18.3,30.20,NW,304,2.2,5.8,27,0.00,,---,0.00,VWS V14.01,2013-03-01 22:36:00,
2013-03-01 15:38:00,50.9,18.1,30.20,NW,314,3.6,5.8,27,0.00,,---,0.00,VWS V14.01,2013-03-01 22:38:00,
2013-03-01 15:39:00,50.7,18.0,30.20,North,0,2.7,5.8,27,0.00,,---,0.00,VWS V14.01,2013-03-01 22:39:00,
2013-03-01 15:41:00,50.7,18.0,30.20,WNW,284,3.1,5.8,27,0.00,,---,0.00,VWS V14.01,2013-03-01 22:41:00,
2013-03-01 15:43:00,50.5,17.8,30.20,West,271,4.9,5.8,27,0.00,,---,0.00,VWS V14.01,2013-03-01 22:43:00,
2013-03-01 15:44:00,50.5,17.8,30.20,NNW,331,2.7,5.8,27,0.00,,---,0.00,VWS V14.01,2013-03-01 22:44:00,
2013-03-01 15:46:00,50.4,17.7,30.20,NW,307,2.7,4.0,27,0.00,,---,0.00,VWS V14.01,2013-03-01 22:46:00,
2013-03-01 15:48:00,50.2,17.5,30.20,WNW,283,3.6,4.9,27,0.00,,---,0.00,VWS V14.01,2013-03-01 22:48:00,
2013-03-01 15:49:00,50.2,17.5,30.20,WNW,289,3.1,4.9,27,0.00,,---,0.00,VWS V14.01,2013-03-01 22:49:00,
2013-03-01 15:50:00,50.2,17.5,30.20,WNW,289,0.0,4.9,27,0.00,,---,0.00,VWS V14.01,2013-03-01 22:50:00,
2013-03-01 15:51:00,50.2,17.5,30.20,WNW,303,2.7,4.9,27,0.00,,---,0.00,VWS V14.01,2013-03-01 22:51:00,
2013-03-01 15:54:00,50.0,17.4,30.20,West,262,3.6,6.3,27,0.00,,---,0.00,VWS V14.01,2013-03-01 22:54:00,
2013-03-01 15:55:00,50.0,18.2,30.20,WSW,240,3.1,6.3,28,0.00,,---,0.00,VWS V14.01,2013-03-01 22:55:00,
2013-03-01 15:57:00,49.8,18.0,30.20,West,268,5.4,6.3,28,0.00,,---,0.00,VWS V14.01,2013-03-01 22:57:00,
2013-03-01 15:59:00,49.8,18.0,30.20,West,280,3.6,6.3,28,0.00,,---,0.00,VWS V14.01,2013-03-01 22:59:00,
2013-03-01 16:00:00,49.8,18.0,30.20,West,277,3.6,6.3,28,0.00,,---,0.00,VWS V14.01,2013-03-01 23:00:00,
2013-03-01 16:02:00,49.8,18.0,30.20,NNW,335,3.1,4.0,28,0.00,,---,0.00,VWS V14.01,2013-03-01 23:02:00,
2013-03-01 16:04:00,49.8,18.0,30.20,WNW,302,2.2,4.0,28,0.00,,---,0.00,VWS V14.01,2013-03-01 23:04:00,
2013-03-01 16:05:00,49.8,18.0,30.20,West,277,4.0,4.0,28,0.00,,---,0.00,VWS V14.01,2013-03-01 23:05:00,
2013-03-01 16:07:00,49.8,18.0,30.20,NNW,342,2.7,4.0,28,0.00,,---,0.00,VWS V14.01,2013-03-01 23:07:00,
2013-03-01 16:09:00,49.8,18.0,30.20,NW,325,2.2,4.0,28,0.00,,---,0.00,VWS V14.01,2013-03-01 23:09:00,
2013-03-01 16:10:00,49.8,18.0,30.20,NW,305,4.0,4.0,28,0.00,,---,0.00,VWS V14.01,2013-03-01 23:10:00,
2013-03-01 16:11:00,49.8,18.0,30.20,NW,306,2.7,4.0,28,0.00,,---,0.00,VWS V14.01,2013-03-01 23:11:00,
2013-03-01 16:12:00,50.0,18.2,30.20,NW,307,0.0,4.0,28,0.00,,---,0.00,VWS V14.01,2013-03-01 23:12:00,
2013-03-01 16:14:00,50.0,18.2,30.20,NNW,337,2.2,4.0,28,0.00,,---,0.00,VWS V14.01,2013-03-01 23:14:00,
2013-03-01 16:15:00,50.0,18.2,30.20,NNW,338,3.1,3.1,28,0.00,,---,0.00,VWS V14.01,2013-03-01 23:15:00,
2013-03-01 16:16:00,50.0,18.2,30.20,NNW,338,3.1,3.1,28,0.00,,---,0.00,VWS V14.01,2013-03-01 23:16:00,
2013-03-01 16:17:00,50.2,18.4,30.20,NNW,338,2.7,3.1,28,0.00,,---,0.00,VWS V14.01,2013-03-01 23:17:00,
2013-03-01 16:19:00,50.0,18.2,30.20,WNW,287,3.6,4.5,28,0.00,,---,0.00,VWS V14.01,2013-03-01 23:19:00,
2013-03-01 16:20:00,50.0,18.2,30.20,WNW,287,3.1,4.5,28,0.00,,---,0.00,VWS V14.01,2013-03-01 23:20:00,
2013-03-01 16:21:00,50.0,18.2,30.20,WNW,283,2.7,4.5,28,0.00,,---,0.00,VWS V14.01,2013-03-01 23:21:00,
2013-03-01 16:22:00,50.0,18.2,30.20,WNW,286,0.0,4.5,28,0.00,,---,0.00,VWS V14.01,2013-03-01 23:22:00,
2013-03-01 16:24:00,50.0,18.2,30.20,WNW,297,0.0,4.5,28,0.00,,---,0.00,VWS V14.01,2013-03-01 23:24:00,
2013-03-01 16:26:00,49.8,18.0,30.20,NW,319,2.7,4.5,28,0.00,,---,0.00,VWS V14.01,2013-03-01 23:26:00,
2013-03-01 16:27:00,49.8,18.0,30.20,NNE,12,3.6,4.5,28,0.00,,---,0.00,VWS V14.01,2013-03-01 23:27:00,
2013-03-01 16:29:00,49.6,17.9,30.17,West,273,5.4,5.4,28,0.00,,---,0.00,VWS V14.01,2013-03-01 23:29:00,
2013-03-01 16:31:00,49.5,17.7,30.17,West,262,6.3,6.3,28,0.00,,---,0.00,VWS V14.01,2013-03-01 23:31:00,
2013-03-01 16:32:00,49.5,17.7,30.17,WNW,291,4.0,6.3,28,0.00,,---,0.00,VWS V14.01,2013-03-01 23:32:00,
2013-03-01 16:34:00,49.3,17.6,30.17,West,276,3.6,6.3,28,0.00,,---,0.00,VWS V14.01,2013-03-01 23:34:00,
2013-03-01 16:36:00,49.3,17.6,30.17,West,274,2.7,6.3,28,0.00,,---,0.00,VWS V14.01,2013-03-01 23:36:00,
2013-03-01 16:38:00,49.1,17.4,30.17,WNW,297,3.1,6.3,28,0.00,,---,0.00,VWS V14.01,2013-03-01 23:38:00,
2013-03-01 16:39:00,49.1,17.4,30.17,West,268,4.9,6.3,28,0.00,,---,0.00,VWS V14.01,2013-03-01 23:39:00,
2013-03-01 16:41:00,48.9,17.3,30.17,West,275,6.7,6.7,28,0.00,,---,0.00,VWS V14.01,2013-03-01 23:41:00,
2013-03-01 16:43:00,48.9,17.3,30.17,NW,316,2.7,6.7,28,0.00,,---,0.00,VWS V14.01,2013-03-01 23:43:00,
2013-03-01 16:44:00,48.9,17.3,30.20,ESE,110,4.9,6.7,28,0.00,,---,0.00,VWS V14.01,2013-03-01 23:44:00,
2013-03-01 16:46:00,48.7,17.1,30.20,WNW,287,2.7,5.4,28,0.00,,---,0.00,VWS V14.01,2013-03-01 23:46:00,
2013-03-01 16:48:00,48.7,17.1,30.20,West,272,3.1,5.4,28,0.00,,---,0.00,VWS V14.01,2013-03-01 23:48:00,
2013-03-01 16:49:00,48.6,17.0,30.20,West,281,3.6,5.4,28,0.00,,---,0.00,VWS V14.01,2013-03-01 23:49:00,
2013-03-01 16:51:00,48.6,17.0,30.20,West,260,3.6,5.8,28,0.00,,---,0.00,VWS V14.01,2013-03-01 23:51:00,
2013-03-01 16:53:00,48.6,17.0,30.20,West,270,7.6,8.1,28,0.00,,---,0.00,VWS V14.01,2013-03-01 23:53:00,
2013-03-01 16:54:00,48.6,17.0,30.20,West,281,6.3,8.1,28,0.00,,---,0.00,VWS V14.01,2013-03-01 23:54:00,
2013-03-01 16:56:00,48.6,17.0,30.20,NW,306,4.0,8.1,28,0.00,,---,0.00,VWS V14.01,2013-03-01 23:56:00,
2013-03-01 16:57:00,48.6,17.0,30.20,SW,214,5.4,8.1,28,0.00,,---,0.00,VWS V14.01,2013-03-01 23:57:00,
2013-03-01 16:58:00,48.6,17.0,30.20,West,267,5.8,8.1,28,0.00,,---,0.00,VWS V14.01,2013-03-01 23:58:00,
2013-03-01 17:00:00,48.4,17.6,30.20,West,279,6.3,8.1,29,0.00,,---,0.00,VWS V14.01,2013-03-02 00:00:00,
2013-03-01 17:01:00,48.4,17.6,30.20,WSW,243,4.0,7.6,29,0.00,,---,0.00,VWS V14.01,2013-03-02 00:01:00,
2013-03-01 17:02:00,48.4,17.6,30.20,West,259,3.1,7.6,29,0.00,,---,0.00,VWS V14.01,2013-03-02 00:02:00,
2013-03-01 17:03:00,48.2,17.5,30.20,West,263,5.8,7.6,29,0.00,,---,0.00,VWS V14.01,2013-03-02 00:03:00,
2013-03-01 17:05:00,48.2,17.5,30.20,West,271,5.8,7.6,29,0.00,,---,0.00,VWS V14.01,2013-03-02 00:05:00,
2013-03-01 17:06:00,48.2,17.5,30.20,WSW,242,3.6,7.6,29,0.00,,---,0.00,VWS V14.01,2013-03-02 00:06:00,
2013-03-01 17:08:00,48.2,17.5,30.20,WNW,288,5.4,7.6,29,0.00,,---,0.00,VWS V14.01,2013-03-02 00:08:00,
2013-03-01 17:10:00,48.2,17.5,30.20,West,273,5.4,7.6,29,0.00,,---,0.00,VWS V14.01,2013-03-02 00:10:00,
2013-03-01 17:11:00,48.2,17.5,30.20,West,266,5.4,7.6,29,0.00,,---,0.00,VWS V14.01,2013-03-02 00:11:00,
2013-03-01 17:13:00,48.0,17.3,30.20,West,261,3.6,7.6,29,0.00,,---,0.00,VWS V14.01,2013-03-02 00:13:00,
2013-03-01 17:14:00,48.0,17.3,30.20,West,276,3.1,7.6,29,0.00,,---,0.00,VWS V14.01,2013-03-02 00:14:00,
2013-03-01 17:15:00,47.8,17.1,30.20,WNW,284,5.4,5.4,29,0.00,,---,0.00,VWS V14.01,2013-03-02 00:15:00,
2013-03-01 17:17:00,47.8,17.1,30.20,WSW,256,3.1,6.3,29,0.00,,---,0.00,VWS V14.01,2013-03-02 00:17:00,
2013-03-01 17:18:00,47.8,17.1,30.20,West,281,4.0,6.3,29,0.00,,---,0.00,VWS V14.01,2013-03-02 00:18:00,
2013-03-01 17:19:00,47.8,17.1,30.20,WNW,286,3.1,6.3,29,0.00,,---,0.00,VWS V14.01,2013-03-02 00:19:00,
2013-03-01 17:20:00,47.8,17.9,30.20,WNW,285,3.1,6.3,30,0.00,,---,0.00,VWS V14.01,2013-03-02 00:20:00,
2013-03-01 17:22:00,47.8,17.9,30.20,West,276,3.1,6.3,30,0.00,,---,0.00,VWS V14.01,2013-03-02 00:22:00,
2013-03-01 17:23:00,47.8,17.9,30.20,WSW,248,3.6,6.3,30,0.00,,---,0.00,VWS V14.01,2013-03-02 00:23:00,
2013-03-01 17:24:00,47.8,17.9,30.20,WSW,253,2.2,6.3,30,0.00,,---,0.00,VWS V14.01,2013-03-02 00:24:00,
2013-03-01 17:25:00,47.8,17.9,30.20,WSW,258,2.7,6.3,30,0.00,,---,0.00,VWS V14.01,2013-03-02 00:25:00,
2013-03-01 17:27:00,47.8,17.9,30.20,West,278,3.1,6.3,30,0.00,,---,0.00,VWS V14.01,2013-03-02 00:27:00,
2013-03-01 17:28:00,47.8,17.9,30.20,NW,313,4.0,6.3,30,0.00,,---,0.00,VWS V14.01,2013-03-02 00:28:00,
2013-03-01 17:29:00,47.8,17.9,30.20,West,279,4.0,6.3,30,0.00,,---,0.00,VWS V14.01,2013-03-02 00:29:00,
2013-03-01 17:30:00,47.8,17.9,30.20,West,269,3.1,3.1,30,0.00,,---,0.00,VWS V14.01,2013-03-02 00:30:00,
2013-03-01 17:32:00,47.7,17.8,30.20,West,273,4.9,5.8,30,0.00,,---,0.00,VWS V14.01,2013-03-02 00:32:00,
2013-03-01 17:33:00,47.7,17.8,30.20,WNW,285,3.6,5.8,30,0.00,,---,0.00,VWS V14.01,2013-03-02 00:33:00,
2013-03-01 17:34:00,47.7,17.8,30.20,WNW,286,3.6,5.8,30,0.00,,---,0.00,VWS V14.01,2013-03-02 00:34:00,
2013-03-01 17:35:00,47.7,17.8,30.20,WNW,299,5.8,5.8,30,0.00,,---,0.00,VWS V14.01,2013-03-02 00:35:00,
2013-03-01 17:37:00,47.5,17.6,30.20,West,272,4.0,6.7,30,0.00,,---,0.00,VWS V14.01,2013-03-02 00:37:00,
2013-03-01 17:38:00,47.5,17.6,30.20,NW,307,6.3,6.7,30,0.00,,---,0.00,VWS V14.01,2013-03-02 00:38:00,
2013-03-01 17:39:00,47.7,17.8,30.20,WNW,282,7.2,7.2,30,0.00,,---,0.00,VWS V14.01,2013-03-02 00:39:00,
2013-03-01 17:40:00,47.7,17.8,30.20,WNW,284,3.6,7.2,30,0.00,,---,0.00,VWS V14.01,2013-03-02 00:40:00,
2013-03-01 17:42:00,47.5,17.6,30.20,West,277,3.6,7.2,30,0.00,,---,0.00,VWS V14.01,2013-03-02 00:42:00,
2013-03-01 17:43:00,47.5,17.6,30.20,SW,228,4.0,7.2,30,0.00,,---,0.00,VWS V14.01,2013-03-02 00:43:00,
2013-03-01 17:45:00,47.5,17.6,30.20,WSW,245,3.1,7.2,30,0.00,,---,0.00,VWS V14.01,2013-03-02 00:45:00,
2013-03-01 17:46:00,47.5,17.6,30.20,WNW,284,6.7,6.7,30,0.00,,---,0.00,VWS V14.01,2013-03-02 00:46:00,
2013-03-01 17:48:00,47.3,17.5,30.20,WSW,239,3.1,6.7,30,0.00,,---,0.00,VWS V14.01,2013-03-02 00:48:00,
2013-03-01 17:50:00,47.3,17.5,30.20,SSW,205,3.6,6.7,30,0.00,,---,0.00,VWS V14.01,2013-03-02 00:50:00,
2013-03-01 17:51:00,47.3,17.5,30.20,SW,222,2.7,6.7,30,0.00,,---,0.00,VWS V14.01,2013-03-02 00:51:00,
2013-03-01 17:53:00,47.3,17.5,30.20,SSW,211,3.6,6.7,30,0.00,,---,0.00,VWS V14.01,2013-03-02 00:53:00,
2013-03-01 17:54:00,47.3,17.5,30.20,West,263,2.7,6.7,30,0.00,,---,0.00,VWS V14.01,2013-03-02 00:54:00,
2013-03-01 17:55:00,47.3,17.5,30.20,NW,309,2.7,6.7,30,0.00,,---,0.00,VWS V14.01,2013-03-02 00:55:00,
2013-03-01 17:56:00,47.3,17.5,30.20,WSW,255,3.1,6.7,30,0.00,,---,0.00,VWS V14.01,2013-03-02 00:56:00,
2013-03-01 17:58:00,47.3,17.5,30.20,West,261,2.7,6.7,30,0.00,,---,0.00,VWS V14.01,2013-03-02 00:58:00,
2013-03-01 17:59:00,47.3,17.5,30.20,South,183,2.2,6.7,30,0.00,,---,0.00,VWS V14.01,2013-03-02 00:59:00,
2013-03-01 18:01:00,47.3,17.5,30.20,SSW,213,2.2,4.0,30,0.00,,---,0.00,VWS V14.01,2013-03-02 01:01:00,
2013-03-01 18:02:00,47.1,17.3,30.20,WSW,243,8.7,8.7,30,0.00,,---,0.00,VWS V14.01,2013-03-02 01:02:00,
2013-03-01 18:04:00,47.1,17.3,30.20,SE,144,4.0,8.7,30,0.00,,---,0.00,VWS V14.01,2013-03-02 01:04:00,
2013-03-01 18:06:00,47.1,18.1,30.20,SSW,202,4.9,8.7,31,0.00,,---,0.00,VWS V14.01,2013-03-02 01:06:00,
2013-03-01 18:07:00,47.1,18.1,30.20,South,187,3.6,8.7,31,0.00,,---,0.00,VWS V14.01,2013-03-02 01:07:00,
2013-03-01 18:09:00,47.1,17.3,30.20,NW,308,0.0,8.7,30,0.00,,---,0.00,VWS V14.01,2013-03-02 01:09:00,
2013-03-01 18:11:00,47.1,17.3,30.20,SE,143,0.0,8.7,30,0.00,,---,0.00,VWS V14.01,2013-03-02 01:11:00,
2013-03-01 18:12:00,47.1,18.1,30.20,SE,140,2.7,8.7,31,0.00,,---,0.00,VWS V14.01,2013-03-02 01:12:00,
2013-03-01 18:14:00,46.9,17.1,30.20,ESE,114,0.0,8.7,30,0.00,,---,0.00,VWS V14.01,2013-03-02 01:14:00,
2013-03-01 18:16:00,46.8,17.0,30.20,ESE,114,0.0,0.0,30,0.00,,---,0.00,VWS V14.01,2013-03-02 01:16:00,
2013-03-01 18:17:00,46.8,17.0,30.20,East,85,2.7,2.7,30,0.00,,---,0.00,VWS V14.01,2013-03-02 01:17:00,
2013-03-01 18:19:00,46.4,17.4,30.20,East,85,0.0,2.7,31,0.00,,---,0.00,VWS V14.01,2013-03-02 01:19:00,
2013-03-01 18:21:00,46.2,17.3,30.20,East,85,0.0,2.7,31,0.00,,---,0.00,VWS V14.01,2013-03-02 01:21:00,
2013-03-01 18:22:00,46.0,17.1,30.20,NE,45,2.7,2.7,31,0.00,,---,0.00,VWS V14.01,2013-03-02 01:22:00,
2013-03-01 18:24:00,45.9,17.7,30.20,East,93,2.7,3.1,32,0.00,,---,0.00,VWS V14.01,2013-03-02 01:24:00,
2013-03-01 18:26:00,45.7,17.5,30.20,East,92,2.7,3.1,32,0.00,,---,0.00,VWS V14.01,2013-03-02 01:26:00,
2013-03-01 18:27:00,45.7,17.5,30.20,East,85,0.0,3.1,32,0.00,,---,0.00,VWS V14.01,2013-03-02 01:27:00,
2013-03-01 18:29:00,45.7,17.5,30.20,East,84,3.1,4.0,32,0.00,,---,0.00,VWS V14.01,2013-03-02 01:29:00,
2013-03-01 18:30:00,45.7,17.5,30.20,SE,126,2.7,4.0,32,0.00,,---,0.00,VWS V14.01,2013-03-02 01:30:00,
2013-03-01 18:31:00,45.7,17.5,30.20,SE,137,2.2,3.6,32,0.00,,---,0.00,VWS V14.01,2013-03-02 01:31:00,
2013-03-01 18:32:00,45.7,17.5,30.20,SE,137,0.0,3.6,32,0.00,,---,0.00,VWS V14.01,2013-03-02 01:32:00,
2013-03-01 18:34:00,45.5,17.4,30.20,East,94,2.7,5.8,32,0.00,,---,0.00,VWS V14.01,2013-03-02 01:34:00,
2013-03-01 18:35:00,45.5,17.4,30.20,ESE,115,3.6,5.8,32,0.00,,---,0.00,VWS V14.01,2013-03-02 01:35:00,
2013-03-01 18:36:00,45.3,17.2,30.20,ESE,113,0.0,5.8,32,0.00,,---,0.00,VWS V14.01,2013-03-02 01:36:00,
2013-03-01 18:37:00,45.3,17.2,30.20,ESE,113,2.2,5.8,32,0.00,,---,0.00,VWS V14.01,2013-03-02 01:37:00,
2013-03-01 18:39:00,45.1,17.1,30.20,ESE,113,2.7,5.8,32,0.00,,---,0.00,VWS V14.01,2013-03-02 01:39:00,
2013-03-01 18:40:00,45.0,16.9,30.20,ESE,113,2.7,5.8,32,0.00,,---,0.00,VWS V14.01,2013-03-02 01:40:00,
2013-03-01 18:41:00,45.0,17.6,30.20,ESE,113,0.0,5.8,33,0.00,,---,0.00,VWS V14.01,2013-03-02 01:41:00,
2013-03-01 18:42:00,45.0,17.6,30.20,ESE,113,2.2,5.8,33,0.00,,---,0.00,VWS V14.01,2013-03-02 01:42:00,
2013-03-01 18:45:00,44.8,17.5,30.20,ESE,113,0.0,0.0,33,0.00,,---,0.00,VWS V14.01,2013-03-02 01:45:00,
2013-03-01 18:46:00,44.6,17.3,30.20,SSE,154,0.0,3.1,33,0.00,,---,0.00,VWS V14.01,2013-03-02 01:46:00,
2013-03-01 18:47:00,44.6,17.3,30.20,WSW,244,3.6,3.6,33,0.00,,---,0.00,VWS V14.01,2013-03-02 01:47:00,
2013-03-01 18:50:00,44.4,17.8,30.20,WNW,285,2.7,3.6,34,0.00,,---,0.00,VWS V14.01,2013-03-02 01:50:00,
2013-03-01 18:52:00,44.2,17.7,30.20,West,261,2.7,3.6,34,0.00,,---,0.00,VWS V14.01,2013-03-02 01:52:00,
2013-03-01 18:53:00,44.2,18.3,30.20,SW,217,2.2,3.6,35,0.00,,---,0.00,VWS V14.01,2013-03-02 01:53:00,
2013-03-01 18:55:00,44.4,18.5,30.20,SSW,201,0.0,3.6,35,0.00,,---,0.00,VWS V14.01,2013-03-02 01:55:00,
2013-03-01 18:56:00,44.4,18.5,30.20,SSW,201,0.0,3.6,35,0.00,,---,0.00,VWS V14.01,2013-03-02 01:56:00,
2013-03-01 18:57:00,44.4,18.5,30.20,SSW,201,0.0,3.6,35,0.00,,---,0.00,VWS V14.01,2013-03-02 01:57:00,
2013-03-01 18:58:00,44.6,18.7,30.20,SSW,201,0.0,3.6,35,0.00,,---,0.00,VWS V14.01,2013-03-02 01:58:00,
2013-03-01 19:00:00,44.6,18.7,30.20,SSW,201,0.0,0.0,35,0.00,,---,0.00,VWS V14.01,2013-03-02 02:00:00,
2013-03-01 19:01:00,44.4,18.5,30.20,SSW,201,0.0,0.0,35,0.00,,---,0.00,VWS V14.01,2013-03-02 02:01:00,
2013-03-01 19:03:00,44.4,18.5,30.20,WNW,284,2.2,3.6,35,0.00,,---,0.00,VWS V14.01,2013-03-02 02:03:00,
2013-03-01 19:06:00,44.4,19.1,30.20,SSW,205,3.1,4.0,36,0.00,,---,0.00,VWS V14.01,2013-03-02 02:06:00,
2013-03-01 19:08:00,44.4,19.1,30.20,WSW,247,2.7,4.9,36,0.00,,---,0.00,VWS V14.01,2013-03-02 02:08:00,
2013-03-01 19:11:00,44.6,18.7,30.20,West,275,3.1,4.9,35,0.00,,---,0.00,VWS V14.01,2013-03-02 02:11:00,
2013-03-01 19:13:00,44.8,19.5,30.20,SW,220,2.7,5.8,36,0.00,,---,0.00,VWS V14.01,2013-03-02 02:13:00,
2013-03-01 19:16:00,44.8,18.8,30.20,WNW,284,2.7,3.6,35,0.00,,---,0.00,VWS V14.01,2013-03-02 02:16:00,
2013-03-01 19:18:00,44.6,19.3,30.20,West,277,0.0,4.0,36,0.00,,---,0.00,VWS V14.01,2013-03-02 02:18:00,
2013-03-01 19:21:00,44.4,19.1,30.20,West,277,0.0,4.0,36,0.00,,---,0.00,VWS V14.01,2013-03-02 02:21:00,
2013-03-01 19:22:00,44.2,19.0,30.20,West,277,0.0,4.0,36,0.00,,---,0.00,VWS V14.01,2013-03-02 02:22:00,
2013-03-01 19:23:00,44.2,19.0,30.20,West,277,0.0,4.0,36,0.00,,---,0.00,VWS V14.01,2013-03-02 02:23:00,
2013-03-01 19:24:00,44.1,18.8,30.20,West,277,0.0,4.0,36,0.00,,---,0.00,VWS V14.01,2013-03-02 02:24:00,
2013-03-01 19:26:00,43.9,18.7,30.20,West,277,0.0,4.0,36,0.00,,---,0.00,VWS V14.01,2013-03-02 02:26:00,
2013-03-01 19:27:00,43.9,18.7,30.20,West,277,0.0,4.0,36,0.00,,---,0.00,VWS V14.01,2013-03-02 02:27:00,
2013-03-01 19:28:00,43.7,19.1,30.20,West,278,2.7,4.0,37,0.00,,---,0.00,VWS V14.01,2013-03-02 02:28:00,
2013-03-01 19:29:00,43.7,19.1,30.23,West,278,2.7,4.0,37,0.00,,---,0.00,VWS V14.01,2013-03-02 02:29:00,
2013-03-01 19:31:00,43.5,19.0,30.23,WNW,285,2.2,2.7,37,0.00,,---,0.00,VWS V14.01,2013-03-02 02:31:00,
2013-03-01 19:32:00,43.5,19.6,30.23,WNW,285,0.0,2.7,38,0.00,,---,0.00,VWS V14.01,2013-03-02 02:32:00,
2013-03-01 19:34:00,43.5,19.6,30.23,WNW,285,0.0,2.7,38,0.00,,---,0.00,VWS V14.01,2013-03-02 02:34:00,
2013-03-01 19:36:00,43.3,19.5,30.23,WNW,285,0.0,2.7,38,0.00,,---,0.00,VWS V14.01,2013-03-02 02:36:00,
2013-03-01 19:37:00,43.2,19.3,30.23,WNW,285,0.0,2.7,38,0.00,,---,0.00,VWS V14.01,2013-03-02 02:37:00,
2013-03-01 19:39:00,43.2,19.3,30.23,WNW,285,0.0,2.7,38,0.00,,---,0.00,VWS V14.01,2013-03-02 02:39:00,
2013-03-01 19:41:00,43.2,19.3,30.23,WNW,285,0.0,2.7,38,0.00,,---,0.00,VWS V14.01,2013-03-02 02:41:00,
2013-03-01 19:42:00,43.0,19.1,30.23,WNW,285,0.0,2.7,38,0.00,,---,0.00,VWS V14.01,2013-03-02 02:42:00,
2013-03-01 19:44:00,43.0,19.1,30.23,WNW,285,0.0,2.7,38,0.00,,---,0.00,VWS V14.01,2013-03-02 02:44:00,
2013-03-01 19:46:00,43.0,19.1,30.23,WNW,285,0.0,0.0,38,0.00,,---,0.00,VWS V14.01,2013-03-02 02:46:00,
2013-03-01 19:48:00,42.8,19.0,30.23,WNW,285,0.0,0.0,38,0.00,,---,0.00,VWS V14.01,2013-03-02 02:48:00,
2013-03-01 19:49:00,42.8,19.0,30.23,WNW,285,0.0,0.0,38,0.00,,---,0.00,VWS V14.01,2013-03-02 02:49:00,
2013-03-01 19:50:00,42.8,19.0,30.23,WNW,285,0.0,0.0,38,0.00,,---,0.00,VWS V14.01,2013-03-02 02:50:00,
2013-03-01 19:51:00,42.8,19.0,30.23,WNW,285,0.0,0.0,38,0.00,,---,0.00,VWS V14.01,2013-03-02 02:51:00,
2013-03-01 19:53:00,42.8,19.0,30.23,WNW,285,0.0,0.0,38,0.00,,---,0.00,VWS V14.01,2013-03-02 02:53:00,
2013-03-01 19:54:00,42.6,18.8,30.23,WNW,285,0.0,0.0,38,0.00,,---,0.00,VWS V14.01,2013-03-02 02:54:00,
2013-03-01 19:55:00,42.4,18.6,30.23,WNW,285,0.0,0.0,38,0.00,,---,0.00,VWS V14.01,2013-03-02 02:55:00,
2013-03-01 19:56:00,42.3,18.5,30.23,WNW,285,0.0,0.0,38,0.00,,---,0.00,VWS V14.01,2013-03-02 02:56:00,
2013-03-01 19:58:00,42.3,18.5,30.23,WNW,285,0.0,0.0,38,0.00,,---,0.00,VWS V14.01,2013-03-02 02:58:00,
2013-03-01 19:59:00,42.3,19.1,30.23,WNW,285,0.0,0.0,39,0.00,,---,0.00,VWS V14.01,2013-03-02 02:59:00,
2013-03-01 20:00:00,42.3,19.1,30.23,WNW,285,0.0,0.0,39,0.00,,---,0.00,VWS V14.01,2013-03-02 03:00:00,
2013-03-01 20:01:00,42.3,19.1,30.23,WNW,285,0.0,0.0,39,0.00,,---,0.00,VWS V14.01,2013-03-02 03:01:00,
2013-03-01 20:03:00,42.4,19.2,30.23,WNW,285,0.0,0.0,39,0.00,,---,0.00,VWS V14.01,2013-03-02 03:03:00,
2013-03-01 20:04:00,42.4,19.2,30.23,WNW,285,0.0,0.0,39,0.00,,---,0.00,VWS V14.01,2013-03-02 03:04:00,
2013-03-01 20:05:00,42.3,19.1,30.23,WNW,285,0.0,0.0,39,0.00,,---,0.00,VWS V14.01,2013-03-02 03:05:00,
2013-03-01 20:06:00,42.3,19.1,30.23,WNW,285,0.0,0.0,39,0.00,,---,0.00,VWS V14.01,2013-03-02 03:06:00,
2013-03-01 20:08:00,42.1,18.9,30.23,WNW,285,0.0,0.0,39,0.00,,---,0.00,VWS V14.01,2013-03-02 03:08:00,
2013-03-01 20:09:00,42.1,18.9,30.23,WNW,285,0.0,0.0,39,0.00,,---,0.00,VWS V14.01,2013-03-02 03:09:00,
2013-03-01 20:10:00,41.9,18.8,30.23,WNW,285,0.0,0.0,39,0.00,,---,0.00,VWS V14.01,2013-03-02 03:10:00,
2013-03-01 20:12:00,41.9,18.8,30.23,WNW,285,0.0,0.0,39,0.00,,---,0.00,VWS V14.01,2013-03-02 03:12:00,
2013-03-01 20:13:00,42.1,18.9,30.23,WNW,285,0.0,0.0,39,0.00,,---,0.00,VWS V14.01,2013-03-02 03:13:00,
2013-03-01 20:14:00,42.1,18.9,30.20,WNW,285,0.0,0.0,39,0.00,,---,0.00,VWS V14.01,2013-03-02 03:14:00,
2013-03-01 20:15:00,42.1,18.9,30.20,WNW,285,0.0,0.0,39,0.00,,---,0.00,VWS V14.01,2013-03-02 03:15:00,
2013-03-01 20:17:00,42.3,19.1,30.20,WNW,285,0.0,0.0,39,0.00,,---,0.00,VWS V14.01,2013-03-02 03:17:00,
2013-03-01 20:18:00,42.4,19.2,30.20,WNW,285,0.0,0.0,39,0.00,,---,0.00,VWS V14.01,2013-03-02 03:18:00,
2013-03-01 20:20:00,42.6,19.4,30.20,WNW,285,0.0,0.0,39,0.00,,---,0.00,VWS V14.01,2013-03-02 03:20:00,
2013-03-01 20:22:00,42.6,19.4,30.20,WNW,285,0.0,0.0,39,0.00,,---,0.00,VWS V14.01,2013-03-02 03:22:00,
2013-03-01 20:23:00,42.6,19.4,30.20,WNW,285,0.0,0.0,39,0.00,,---,0.00,VWS V14.01,2013-03-02 03:23:00,
2013-03-01 20:25:00,42.6,18.8,30.20,WNW,285,0.0,0.0,38,0.00,,---,0.00,VWS V14.01,2013-03-02 03:25:00,
2013-03-01 20:27:00,42.6,18.8,30.20,WNW,285,0.0,0.0,38,0.00,,---,0.00,VWS V14.01,2013-03-02 03:27:00,
2013-03-01 20:28:00,42.4,19.2,30.23,West,279,2.2,2.7,39,0.00,,---,0.00,VWS V14.01,2013-03-02 03:28:00,
2013-03-01 20:30:00,42.3,19.1,30.23,West,279,2.2,2.2,39,0.00,,---,0.00,VWS V14.01,2013-03-02 03:30:00,
2013-03-01 20:32:00,41.9,18.8,30.23,West,279,0.0,2.2,39,0.00,,---,0.00,VWS V14.01,2013-03-02 03:32:00,
2013-03-01 20:34:00,41.7,18.6,30.23,West,279,0.0,2.2,39,0.00,,---,0.00,VWS V14.01,2013-03-02 03:34:00,
2013-03-01 20:36:00,41.5,18.4,30.23,West,279,0.0,2.2,39,0.00,,---,0.00,VWS V14.01,2013-03-02 03:36:00,
2013-03-01 20:37:00,41.5,18.4,30.23,West,279,0.0,2.2,39,0.00,,---,0.00,VWS V14.01,2013-03-02 03:37:00,
2013-03-01 20:39:00,41.2,18.1,30.23,WSW,254,2.2,2.7,39,0.00,,---,0.00,VWS V14.01,2013-03-02 03:39:00,
2013-03-01 20:41:00,41.2,18.7,30.23,WSW,254,2.7,3.1,40,0.00,,---,0.00,VWS V14.01,2013-03-02 03:41:00,
2013-03-01 20:42:00,41.0,18.5,30.23,WSW,256,2.7,3.1,40,0.00,,---,0.00,VWS V14.01,2013-03-02 03:42:00,
2013-03-01 20:44:00,40.8,18.4,30.23,West,270,0.0,3.1,40,0.00,,---,0.00,VWS V14.01,2013-03-02 03:44:00,
2013-03-01 20:46:00,40.8,18.4,30.23,West,267,4.9,5.4,40,0.00,,---,0.00,VWS V14.01,2013-03-02 03:46:00,
2013-03-01 20:47:00,40.8,19.0,30.23,West,261,2.7,5.4,41,0.00,,---,0.00,VWS V14.01,2013-03-02 03:47:00,
2013-03-01 20:50:00,40.8,19.0,30.23,West,266,4.0,5.4,41,0.00,,---,0.00,VWS V14.01,2013-03-02 03:50:00,
2013-03-01 20:51:00,41.0,18.5,30.23,WSW,251,2.7,5.4,40,0.00,,---,0.00,VWS V14.01,2013-03-02 03:51:00,
2013-03-01 20:52:00,41.2,18.7,30.23,WSW,255,2.7,5.4,40,0.00,,---,0.00,VWS V14.01,2013-03-02 03:52:00,
2013-03-01 20:55:00,41.7,18.6,30.23,West,265,3.6,5.4,39,0.00,,---,0.00,VWS V14.01,2013-03-02 03:55:00,
2013-03-01 20:56:00,41.7,18.6,30.23,West,263,3.1,5.4,39,0.00,,---,0.00,VWS V14.01,2013-03-02 03:56:00,
2013-03-01 20:57:00,42.3,19.1,30.23,West,275,4.0,5.4,39,0.00,,---,0.00,VWS V14.01,2013-03-02 03:57:00,
2013-03-01 21:00:00,42.6,19.4,30.20,West,270,2.7,2.7,39,0.00,,---,0.00,VWS V14.01,2013-03-02 04:00:00,
2013-03-01 21:01:00,42.8,19.0,30.20,West,270,3.1,3.1,38,0.00,,---,0.00,VWS V14.01,2013-03-02 04:01:00,
2013-03-01 21:02:00,43.0,19.1,30.20,West,270,2.2,3.1,38,0.00,,---,0.00,VWS V14.01,2013-03-02 04:02:00,
2013-03-01 21:05:00,43.0,19.1,30.20,WSW,254,2.7,3.1,38,0.00,,---,0.00,VWS V14.01,2013-03-02 04:05:00,
2013-03-01 21:06:00,43.0,19.1,30.20,WSW,245,3.6,3.6,38,0.00,,---,0.00,VWS V14.01,2013-03-02 04:06:00,
2013-03-01 21:08:00,43.2,19.3,30.20,WSW,242,3.1,3.6,38,0.00,,---,0.00,VWS V14.01,2013-03-02 04:08:00,
2013-03-01 21:10:00,43.2,19.3,30.20,SSW,211,3.6,3.6,38,0.00,,---,0.00,VWS V14.01,2013-03-02 04:10:00,
2013-03-01 21:11:00,43.2,19.3,30.20,SSW,213,3.6,4.9,38,0.00,,---,0.00,VWS V14.01,2013-03-02 04:11:00,
2013-03-01 21:12:00,43.2,19.3,30.20,SSW,213,2.7,4.9,38,0.00,,---,0.00,VWS V14.01,2013-03-02 04:12:00,
2013-03-01 21:13:00,43.2,19.3,30.20,SSW,211,3.1,4.9,38,0.00,,---,0.00,VWS V14.01,2013-03-02 04:13:00,
2013-03-01 21:15:00,43.3,19.5,30.23,SSW,212,4.0,4.9,38,0.00,,---,0.00,VWS V14.01,2013-03-02 04:15:00,
2013-03-01 21:16:00,43.3,19.5,30.23,SSW,212,2.7,4.9,38,0.00,,---,0.00,VWS V14.01,2013-03-02 04:16:00,
2013-03-01 21:17:00,43.5,19.6,30.23,SSW,210,4.9,4.9,38,0.00,,---,0.00,VWS V14.01,2013-03-02 04:17:00,
2013-03-01 21:18:00,43.5,19.6,30.23,SSW,209,4.0,5.8,38,0.00,,---,0.00,VWS V14.01,2013-03-02 04:18:00,
2013-03-01 21:21:00,43.9,19.3,30.23,SW,222,4.0,6.3,37,0.00,,---,0.00,VWS V14.01,2013-03-02 04:21:00,
2013-03-01 21:22:00,43.9,18.7,30.23,South,186,4.9,6.3,36,0.00,,---,0.00,VWS V14.01,2013-03-02 04:22:00,
2013-03-01 21:23:00,44.1,18.8,30.23,SSW,212,4.0,6.3,36,0.00,,---,0.00,VWS V14.01,2013-03-02 04:23:00,
2013-03-01 21:27:00,44.2,19.0,30.23,SSW,213,3.1,6.3,36,0.00,,---,0.00,VWS V14.01,2013-03-02 04:27:00,
2013-03-01 21:28:00,44.2,19.0,30.23,South,183,3.1,6.3,36,0.00,,---,0.00,VWS V14.01,2013-03-02 04:28:00,
2013-03-01 21:32:00,44.2,19.0,30.23,SW,217,3.1,4.0,36,0.00,,---,0.00,VWS V14.01,2013-03-02 04:32:00,
2013-03-01 21:33:00,44.2,19.0,30.23,SW,220,3.1,4.0,36,0.00,,---,0.00,VWS V14.01,2013-03-02 04:33:00,
2013-03-01 21:37:00,43.9,18.7,30.23,SW,216,3.1,4.0,36,0.00,,---,0.00,VWS V14.01,2013-03-02 04:37:00,
2013-03-01 21:38:00,43.9,18.7,30.23,SW,228,2.7,4.0,36,0.00,,---,0.00,VWS V14.01,2013-03-02 04:38:00,
2013-03-01 21:42:00,43.9,18.7,30.23,WSW,237,3.6,5.4,36,0.00,,---,0.00,VWS V14.01,2013-03-02 04:42:00,
2013-03-01 21:43:00,44.1,18.8,30.23,SW,226,3.6,5.4,36,0.00,,---,0.00,VWS V14.01,2013-03-02 04:43:00,
2013-03-01 21:47:00,44.1,18.8,30.23,SW,217,3.6,5.8,36,0.00,,---,0.00,VWS V14.01,2013-03-02 04:47:00,
2013-03-01 21:48:00,44.1,18.8,30.23,SW,225,3.6,5.8,36,0.00,,---,0.00,VWS V14.01,2013-03-02 04:48:00,
2013-03-01 21:49:00,44.1,18.8,30.23,SW,227,3.6,5.8,36,0.00,,---,0.00,VWS V14.01,2013-03-02 04:49:00,
2013-03-01 21:52:00,44.4,18.5,30.23,SSW,202,6.3,8.1,35,0.00,,---,0.00,VWS V14.01,2013-03-02 04:52:00,
2013-03-01 21:53:00,44.6,18.7,30.23,SSW,195,4.5,8.1,35,0.00,,---,0.00,VWS V14.01,2013-03-02 04:53:00,
2013-03-01 21:54:00,44.6,18.7,30.23,SW,235,4.0,8.1,35,0.00,,---,0.00,VWS V14.01,2013-03-02 04:54:00,
2013-03-01 21:57:00,44.6,18.7,30.23,WSW,237,3.1,8.1,35,0.00,,---,0.00,VWS V14.01,2013-03-02 04:57:00,
2013-03-01 21:58:00,44.6,18.7,30.23,SW,219,3.1,8.1,35,0.00,,---,0.00,VWS V14.01,2013-03-02 04:58:00,
2013-03-01 21:59:00,44.6,18.7,30.23,SW,221,3.1,8.1,35,0.00,,---,0.00,VWS V14.01,2013-03-02 04:59:00,
2013-03-01 22:00:00,44.6,18.7,30.23,SSW,197,3.1,8.1,35,0.00,,---,0.00,VWS V14.01,2013-03-02 05:00:00,
2013-03-01 22:05:00,44.6,18.7,30.23,SSW,203,3.6,4.9,35,0.00,,---,0.00,VWS V14.01,2013-03-02 05:05:00,
2013-03-01 22:06:00,44.6,18.7,30.23,West,278,4.0,4.9,35,0.00,,---,0.00,VWS V14.01,2013-03-02 05:06:00,
2013-03-01 22:10:00,44.6,18.7,30.23,SSW,211,3.1,4.9,35,0.00,,---,0.00,VWS V14.01,2013-03-02 05:10:00,
2013-03-01 22:11:00,44.2,18.3,30.23,WSW,245,3.1,4.9,35,0.00,,---,0.00,VWS V14.01,2013-03-02 05:11:00,
2013-03-01 22:15:00,44.2,18.3,30.20,WSW,256,5.4,5.4,35,0.00,,---,0.00,VWS V14.01,2013-03-02 05:15:00,
2013-03-01 22:16:00,44.2,18.3,30.20,West,263,3.1,5.4,35,0.00,,---,0.00,VWS V14.01,2013-03-02 05:16:00,
2013-03-01 22:20:00,44.1,18.2,30.20,West,263,3.1,5.4,35,0.00,,---,0.00,VWS V14.01,2013-03-02 05:20:00,
2013-03-01 22:21:00,44.1,18.2,30.20,WSW,241,2.2,5.4,35,0.00,,---,0.00,VWS V14.01,2013-03-02 05:21:00,
2013-03-01 22:25:00,44.1,18.2,30.20,WSW,241,2.2,5.4,35,0.00,,---,0.00,VWS V14.01,2013-03-02 05:25:00,
2013-03-01 22:26:00,44.1,18.2,30.20,WSW,241,0.0,5.4,35,0.00,,---,0.00,VWS V14.01,2013-03-02 05:26:00,
2013-03-01 22:30:00,43.9,18.0,30.23,WSW,241,0.0,0.0,35,0.00,,---,0.00,VWS V14.01,2013-03-02 05:30:00,
2013-03-01 22:31:00,43.9,18.0,30.23,WSW,241,0.0,0.0,35,0.00,,---,0.00,VWS V14.01,2013-03-02 05:31:00,
2013-03-01 22:32:00,43.9,18.0,30.23,WSW,241,0.0,0.0,35,0.00,,---,0.00,VWS V14.01,2013-03-02 05:32:00,
2013-03-01 22:35:00,43.5,17.7,30.23,WSW,241,2.7,3.1,35,0.00,,---,0.00,VWS V14.01,2013-03-02 05:35:00,
2013-03-01 22:36:00,43.5,17.7,30.23,WSW,241,2.7,3.1,35,0.00,,---,0.00,VWS V14.01,2013-03-02 05:36:00,
2013-03-01 22:37:00,43.5,17.7,30.23,WSW,241,2.7,3.1,35,0.00,,---,0.00,VWS V14.01,2013-03-02 05:37:00,
2013-03-01 22:40:00,43.2,17.4,30.23,West,269,0.0,4.0,35,0.00,,---,0.00,VWS V14.01,2013-03-02 05:40:00,
2013-03-01 22:41:00,43.2,17.4,30.23,West,269,0.0,4.0,35,0.00,,---,0.00,VWS V14.01,2013-03-02 05:41:00,
2013-03-01 22:42:00,43.0,17.2,30.23,West,269,0.0,4.0,35,0.00,,---,0.00,VWS V14.01,2013-03-02 05:42:00,
2013-03-01 22:46:00,43.0,17.9,30.23,West,266,0.0,2.2,36,0.00,,---,0.00,VWS V14.01,2013-03-02 05:46:00,
2013-03-01 22:47:00,42.8,17.7,30.23,West,266,0.0,2.2,36,0.00,,---,0.00,VWS V14.01,2013-03-02 05:47:00,
2013-03-01 22:51:00,42.8,17.7,30.23,West,266,0.0,2.2,36,0.00,,---,0.00,VWS V14.01,2013-03-02 05:51:00,
2013-03-01 22:52:00,42.6,17.5,30.23,WSW,249,0.0,2.2,36,0.00,,---,0.00,VWS V14.01,2013-03-02 05:52:00,
2013-03-01 22:53:00,42.6,17.5,30.23,SSE,155,0.0,2.2,36,0.00,,---,0.00,VWS V14.01,2013-03-02 05:53:00,
2013-03-01 22:56:00,42.1,17.1,30.23,SSE,155,0.0,3.1,36,0.00,,---,0.00,VWS V14.01,2013-03-02 05:56:00,
2013-03-01 22:57:00,41.7,17.4,30.23,SSE,155,2.2,3.1,37,0.00,,---,0.00,VWS V14.01,2013-03-02 05:57:00,
2013-03-01 22:58:00,41.5,17.8,30.20,SSE,167,2.7,3.1,38,0.00,,---,0.00,VWS V14.01,2013-03-02 05:58:00,
2013-03-01 23:01:00,41.2,17.5,30.20,South,191,2.7,3.6,38,0.00,,---,0.00,VWS V14.01,2013-03-02 06:01:00,
2013-03-01 23:02:00,41.0,17.4,30.20,South,191,0.0,3.6,38,0.00,,---,0.00,VWS V14.01,2013-03-02 06:02:00,
2013-03-01 23:03:00,41.0,17.4,30.20,South,191,0.0,3.6,38,0.00,,---,0.00,VWS V14.01,2013-03-02 06:03:00,
2013-03-01 23:06:00,41.0,17.4,30.20,South,191,2.7,3.6,38,0.00,,---,0.00,VWS V14.01,2013-03-02 06:06:00,
2013-03-01 23:07:00,40.8,17.8,30.20,South,191,2.2,3.6,39,0.00,,---,0.00,VWS V14.01,2013-03-02 06:07:00,
2013-03-01 23:09:00,40.8,17.8,30.20,South,191,2.7,3.6,39,0.00,,---,0.00,VWS V14.01,2013-03-02 06:09:00,
2013-03-01 23:11:00,40.8,17.8,30.20,South,191,0.0,3.6,39,0.00,,---,0.00,VWS V14.01,2013-03-02 06:11:00,
2013-03-01 23:12:00,40.6,17.6,30.20,South,191,0.0,3.6,39,0.00,,---,0.00,VWS V14.01,2013-03-02 06:12:00,
2013-03-01 23:13:00,40.6,17.6,30.20,South,191,0.0,3.6,39,0.00,,---,0.00,VWS V14.01,2013-03-02 06:13:00,
2013-03-01 23:14:00,40.6,17.6,30.20,South,191,0.0,3.6,39,0.00,,---,0.00,VWS V14.01,2013-03-02 06:14:00,
2013-03-01 23:16:00,40.5,17.5,30.20,South,191,0.0,2.7,39,0.00,,---,0.00,VWS V14.01,2013-03-02 06:16:00,
2013-03-01 23:17:00,40.3,17.3,30.20,South,191,0.0,2.7,39,0.00,,---,0.00,VWS V14.01,2013-03-02 06:17:00,
2013-03-01 23:18:00,40.3,17.3,30.20,South,191,0.0,2.7,39,0.00,,---,0.00,VWS V14.01,2013-03-02 06:18:00,
2013-03-01 23:19:00,40.1,17.1,30.20,South,191,0.0,2.7,39,0.00,,---,0.00,VWS V14.01,2013-03-02 06:19:00,
2013-03-01 23:21:00,39.7,16.8,30.20,South,191,0.0,2.7,39,0.00,,---,0.00,VWS V14.01,2013-03-02 06:21:00,
2013-03-01 23:22:00,39.7,16.8,30.20,South,191,0.0,2.7,39,0.00,,---,0.00,VWS V14.01,2013-03-02 06:22:00,
2013-03-01 23:23:00,39.7,16.8,30.20,South,191,0.0,2.7,39,0.00,,---,0.00,VWS V14.01,2013-03-02 06:23:00,
2013-03-01 23:24:00,39.7,16.8,30.20,South,191,0.0,2.7,39,0.00,,---,0.00,VWS V14.01,2013-03-02 06:24:00,
2013-03-01 23:27:00,39.6,16.7,30.20,South,191,0.0,2.7,39,0.00,,---,0.00,VWS V14.01,2013-03-02 06:27:00,
2013-03-01 23:28:00,39.6,16.7,30.20,South,191,0.0,2.7,39,0.00,,---,0.00,VWS V14.01,2013-03-02 06:28:00,
2013-03-01 23:29:00,39.4,16.5,30.23,South,191,2.7,2.7,39,0.00,,---,0.00,VWS V14.01,2013-03-02 06:29:00,
2013-03-01 23:32:00,39.2,16.9,30.23,South,191,0.0,0.0,40,0.00,,---,0.00,VWS V14.01,2013-03-02 06:32:00,
2013-03-01 23:33:00,38.8,16.6,30.23,South,191,0.0,0.0,40,0.00,,---,0.00,VWS V14.01,2013-03-02 06:33:00,
2013-03-01 23:34:00,38.8,16.6,30.23,South,191,0.0,0.0,40,0.00,,---,0.00,VWS V14.01,2013-03-02 06:34:00,
2013-03-01 23:37:00,38.8,16.6,30.23,South,191,0.0,0.0,40,0.00,,---,0.00,VWS V14.01,2013-03-02 06:37:00,
2013-03-01 23:39:00,38.8,16.6,30.23,South,191,2.2,2.7,40,0.00,,---,0.00,VWS V14.01,2013-03-02 06:39:00,
2013-03-01 23:42:00,38.8,17.2,30.23,SSW,203,0.0,4.9,41,0.00,,---,0.00,VWS V14.01,2013-03-02 06:42:00,
2013-03-01 23:44:00,38.8,17.2,30.20,SSW,203,3.1,4.9,41,0.00,,---,0.00,VWS V14.01,2013-03-02 06:44:00,
2013-03-01 23:47:00,38.8,17.2,30.20,South,190,0.0,4.0,41,0.00,,---,0.00,VWS V14.01,2013-03-02 06:47:00,
2013-03-01 23:49:00,38.8,17.2,30.20,South,190,0.0,4.0,41,0.00,,---,0.00,VWS V14.01,2013-03-02 06:49:00,
2013-03-01 23:52:00,39.2,17.5,30.20,South,190,3.1,4.0,41,0.00,,---,0.00,VWS V14.01,2013-03-02 06:52:00,
2013-03-01 23:54:00,39.4,17.1,30.20,SSW,207,2.2,4.0,40,0.00,,---,0.00,VWS V14.01,2013-03-02 06:54:00,
2013-03-01 23:57:00,40.5,17.5,30.20,SSW,198,5.8,6.3,39,0.00,,---,0.00,VWS V14.01,2013-03-02 06:57:00,
2013-03-01 23:59:00,41.2,18.1,30.20,SSW,198,5.4,6.3,39,0.00,,---,0.00,VWS V14.01,2013-03-02 06:59:00,